Wetterdaten: Dienstag, 11.04.2023
Datum Zeit Temp. Aussen Temp. o. S. Temp +5cm Feuchte Auss Luftdruck Regen Sonnenschein Regendauer Solar Windben Empfang
11.04.2023 00:00 9,6 C 8,3 C 5,0 C 93 % 1010,4 hPa 0,0 l/m 0 min 0 min 0 W/m 25,7 km/h (4 Bft) 97,87 %
11.04.2023 00:02 9,6 C 8,3 C 5,0 C 93 % 1010,4 hPa 0,0 l/m 0 min 0 min 0 W/m 29,0 km/h (5 Bft) 97,14 %
11.04.2023 00:04 9,6 C 8,3 C 5,0 C 93 % 1010,3 hPa 0,0 l/m 0 min 0 min 0 W/m 16,1 km/h (3 Bft) 97,87 %
11.04.2023 00:07 9,6 C 8,9 C 5,0 C 93 % 1010,7 hPa 0,0 l/m 0 min 0 min 0 W/m 16,1 km/h (3 Bft) 97,44 %
11.04.2023 00:08 9,6 C 8,9 C 5,0 C 93 % 1010,7 hPa 0,0 l/m 0 min 0 min 0 W/m 22,5 km/h (4 Bft) 100,00 %
11.04.2023 00:12 9,6 C 8,9 C 5,0 C 93 % 1010,8 hPa 0,0 l/m 0 min 0 min 0 W/m 29,0 km/h (5 Bft) 100,00 %
11.04.2023 00:14 9,6 C 8,9 C 5,0 C 93 % 1010,7 hPa 0,0 l/m 0 min 0 min 0 W/m 22,5 km/h (4 Bft) 97,87 %
11.04.2023 00:16 9,6 C 8,9 C 5,0 C 93 % 1010,7 hPa 0,0 l/m 0 min 0 min 0 W/m 16,1 km/h (3 Bft) 97,92 %
11.04.2023 00:18 9,6 C 8,9 C 5,0 C 93 % 1010,5 hPa 0,0 l/m 0 min 0 min 0 W/m 12,9 km/h (3 Bft) 98,00 %
11.04.2023 00:20 9,6 C 8,9 C 5,0 C 93 % 1010,4 hPa 0,0 l/m 0 min 0 min 0 W/m 12,9 km/h (3 Bft) 100,00 %
11.04.2023 00:22 9,6 C 8,9 C 4,4 C 93 % 1010,4 hPa 0,0 l/m 0 min 0 min 0 W/m 19,3 km/h (3 Bft) 97,87 %
11.04.2023 00:24 9,6 C 8,9 C 4,4 C 93 % 1010,3 hPa 0,0 l/m 0 min 0 min 0 W/m 19,3 km/h (3 Bft) 97,83 %
11.04.2023 00:26 9,6 C 8,9 C 4,4 C 93 % 1010,3 hPa 0,0 l/m 0 min 0 min 0 W/m 16,1 km/h (3 Bft) 100,00 %
11.04.2023 00:28 9,6 C 8,9 C 4,4 C 93 % 1010,3 hPa 0,0 l/m 0 min 0 min 0 W/m 9,7 km/h (2 Bft) 97,87 %
11.04.2023 00:30 9,6 C 8,9 C 4,4 C 92 % 1010,3 hPa 0,0 l/m 0 min 0 min 0 W/m 19,3 km/h (3 Bft) 97,92 %
11.04.2023 00:32 9,6 C 8,9 C 4,4 C 92 % 1010,2 hPa 0,0 l/m 0 min 0 min 0 W/m 16,1 km/h (3 Bft) 97,14 %
11.04.2023 00:34 9,5 C 8,3 C 4,4 C 92 % 1010,1 hPa 0,0 l/m 0 min 0 min 0 W/m 16,1 km/h (3 Bft) 100,00 %
11.04.2023 00:36 9,5 C 8,3 C 4,4 C 92 % 1010,0 hPa 0,0 l/m 0 min 0 min 0 W/m 12,9 km/h (3 Bft) 100,00 %
11.04.2023 00:38 9,5 C 8,3 C 4,4 C 92 % 1009,9 hPa 0,0 l/m 0 min 0 min 0 W/m 22,5 km/h (4 Bft) 100,00 %
11.04.2023 00:40 9,4 C 8,3 C 4,4 C 92 % 1009,9 hPa 0,0 l/m 0 min 0 min 0 W/m 9,7 km/h (2 Bft) 100,00 %
11.04.2023 00:42 9,4 C 8,3 C 4,4 C 92 % 1010,0 hPa 0,0 l/m 0 min 0 min 0 W/m 12,9 km/h (3 Bft) 97,87 %
11.04.2023 00:44 9,4 C 8,3 C 4,4 C 92 % 1010,1 hPa 0,0 l/m 0 min 0 min 0 W/m 12,9 km/h (3 Bft) 97,87 %
11.04.2023 00:46 9,4 C 8,3 C 4,4 C 92 % 1010,0 hPa 0,0 l/m 0 min 0 min 0 W/m 9,7 km/h (2 Bft) 97,87 %
11.04.2023 00:48 9,4 C 8,3 C 4,4 C 92 % 1010,0 hPa 0,0 l/m 0 min 0 min 0 W/m 12,9 km/h (3 Bft) 95,74 %
11.04.2023 00:50 9,4 C 8,3 C 4,4 C 92 % 1010,0 hPa 0,0 l/m 0 min 0 min 0 W/m 9,7 km/h (2 Bft) 95,65 %
11.04.2023 00:52 9,3 C 8,3 C 4,4 C 92 % 1010,0 hPa 0,0 l/m 0 min 0 min 0 W/m 19,3 km/h (3 Bft) 93,62 %
11.04.2023 00:54 9,3 C 8,3 C 4,4 C 92 % 1010,2 hPa 0,0 l/m 0 min 0 min 0 W/m 16,1 km/h (3 Bft) 95,74 %
11.04.2023 00:56 9,3 C 8,3 C 4,4 C 92 % 1010,3 hPa 0,0 l/m 0 min 0 min 0 W/m 9,7 km/h (2 Bft) 93,62 %
11.04.2023 00:58 9,3 C 8,3 C 4,4 C 92 % 1010,2 hPa 0,0 l/m 0 min 0 min 0 W/m 16,1 km/h (3 Bft) 95,74 %
11.04.2023 01:00 9,3 C 8,3 C 4,4 C 92 % 1010,2 hPa 0,0 l/m 0 min 0 min 0 W/m 19,3 km/h (3 Bft) 95,74 %
11.04.2023 01:02 9,3 C 8,3 C 4,4 C 92 % 1010,2 hPa 0,0 l/m 0 min 0 min 0 W/m 19,3 km/h (3 Bft) 97,83 %
11.04.2023 01:04 9,3 C 8,3 C 4,4 C 92 % 1010,2 hPa 0,0 l/m 0 min 0 min 0 W/m 16,1 km/h (3 Bft) 93,62 %
11.04.2023 01:06 9,3 C 8,3 C 4,4 C 92 % 1010,1 hPa 0,0 l/m 0 min 0 min 0 W/m 12,9 km/h (3 Bft) 92,45 %
11.04.2023 01:08 9,3 C 8,3 C 4,4 C 92 % 1010,2 hPa 0,0 l/m 0 min 0 min 0 W/m 12,9 km/h (3 Bft) 95,74 %
11.04.2023 01:10 9,3 C 8,3 C 4,4 C 92 % 1010,2 hPa 0,0 l/m 0 min 0 min 0 W/m 12,9 km/h (3 Bft) 95,74 %
11.04.2023 01:12 9,3 C 8,3 C 4,4 C 92 % 1010,1 hPa 0,0 l/m 0 min 0 min 0 W/m 12,9 km/h (3 Bft) 93,62 %
11.04.2023 01:14 9,3 C 8,3 C 4,4 C 92 % 1010,1 hPa 0,0 l/m 0 min 0 min 0 W/m 6,4 km/h (2 Bft) 96,00 %
11.04.2023 01:16 9,3 C 8,3 C 4,4 C 92 % 1010,1 hPa 0,0 l/m 0 min 0 min 0 W/m 12,9 km/h (3 Bft) 95,74 %
11.04.2023 01:18 9,3 C 8,3 C 4,4 C 92 % 1010,1 hPa 0,0 l/m 0 min 0 min 0 W/m 12,9 km/h (3 Bft) 97,30 %
11.04.2023 01:20 9,3 C 8,3 C 4,4 C 92 % 1010,2 hPa 0,0 l/m 0 min 0 min 0 W/m 9,7 km/h (2 Bft) 97,87 %
11.04.2023 01:22 9,3 C 8,3 C 4,4 C 92 % 1010,2 hPa 0,0 l/m 0 min 0 min 0 W/m 16,1 km/h (3 Bft) 96,36 %
11.04.2023 01:24 9,3 C 8,3 C 4,4 C 92 % 1010,2 hPa 0,0 l/m 0 min 0 min 0 W/m 16,1 km/h (3 Bft) 98,00 %
11.04.2023 01:26 9,3 C 8,3 C 4,4 C 92 % 1010,1 hPa 0,0 l/m 0 min 0 min 0 W/m 16,1 km/h (3 Bft) 95,74 %
11.04.2023 01:28 9,3 C 8,3 C 4,4 C 92 % 1010,1 hPa 0,0 l/m 0 min 0 min 0 W/m 19,3 km/h (3 Bft) 97,87 %
11.04.2023 01:30 9,3 C 8,3 C 4,4 C 92 % 1010,1 hPa 0,0 l/m 0 min 0 min 0 W/m 22,5 km/h (4 Bft) 97,87 %
11.04.2023 01:32 9,3 C 8,3 C 4,4 C 92 % 1010,1 hPa 0,0 l/m 0 min 0 min 0 W/m 16,1 km/h (3 Bft) 97,83 %
11.04.2023 01:34 9,3 C 8,3 C 4,4 C 92 % 1010,3 hPa 0,0 l/m 0 min 0 min 0 W/m 19,3 km/h (3 Bft) 95,74 %
11.04.2023 01:36 9,3 C 8,3 C 4,4 C 92 % 1010,1 hPa 0,0 l/m 0 min 0 min 0 W/m 25,7 km/h (4 Bft) 95,74 %
11.04.2023 01:38 9,3 C 8,3 C 4,4 C 92 % 1010,2 hPa 0,0 l/m 0 min 0 min 0 W/m 19,3 km/h (3 Bft) 97,87 %
11.04.2023 01:40 9,3 C 8,9 C 4,4 C 92 % 1010,1 hPa 0,0 l/m 0 min 0 min 0 W/m 16,1 km/h (3 Bft) 100,00 %
11.04.2023 01:42 9,3 C 8,9 C 4,4 C 92 % 1010,1 hPa 0,0 l/m 0 min 0 min 0 W/m 16,1 km/h (3 Bft) 97,87 %
11.04.2023 01:44 9,3 C 8,9 C 4,4 C 92 % 1010,0 hPa 0,0 l/m 0 min 0 min 0 W/m 22,5 km/h (4 Bft) 100,00 %
11.04.2023 01:46 9,4 C 8,9 C 4,4 C 92 % 1010,0 hPa 0,0 l/m 0 min 0 min 0 W/m 22,5 km/h (4 Bft) 95,65 %
11.04.2023 01:48 9,4 C 8,9 C 4,4 C 92 % 1010,0 hPa 0,0 l/m 0 min 0 min 0 W/m 16,1 km/h (3 Bft) 100,00 %
11.04.2023 01:50 9,4 C 8,9 C 4,4 C 92 % 1010,1 hPa 0,0 l/m 0 min 0 min 0 W/m 19,3 km/h (3 Bft) 100,00 %
11.04.2023 01:52 9,4 C 8,9 C 4,4 C 92 % 1010,1 hPa 0,0 l/m 0 min 0 min 0 W/m 19,3 km/h (3 Bft) 100,00 %
11.04.2023 01:54 9,4 C 8,9 C 4,4 C 92 % 1010,1 hPa 0,0 l/m 0 min 0 min 0 W/m 25,7 km/h (4 Bft) 97,87 %
11.04.2023 01:56 9,4 C 8,9 C 4,4 C 92 % 1010,1 hPa 0,0 l/m 0 min 0 min 0 W/m 22,5 km/h (4 Bft) 97,87 %
11.04.2023 01:58 9,5 C 8,9 C 4,4 C 92 % 1010,1 hPa 0,0 l/m 0 min 0 min 0 W/m 19,3 km/h (3 Bft) 97,14 %
11.04.2023 02:00 9,5 C 8,9 C 4,4 C 92 % 1010,1 hPa 0,0 l/m 0 min 0 min 0 W/m 19,3 km/h (3 Bft) 97,87 %
11.04.2023 02:02 9,5 C 8,9 C 4,4 C 92 % 1010,2 hPa 0,0 l/m 0 min 0 min 0 W/m 29,0 km/h (5 Bft) 95,74 %
11.04.2023 02:04 9,5 C 8,9 C 4,4 C 92 % 1010,2 hPa 0,0 l/m 0 min 0 min 0 W/m 19,3 km/h (3 Bft) 97,87 %
11.04.2023 02:06 9,6 C 8,9 C 4,4 C 92 % 1010,1 hPa 0,0 l/m 0 min 0 min 0 W/m 12,9 km/h (3 Bft) 96,61 %
11.04.2023 02:08 9,6 C 8,9 C 4,4 C 92 % 1010,1 hPa 0,0 l/m 0 min 0 min 0 W/m 16,1 km/h (3 Bft) 97,14 %
11.04.2023 02:10 9,6 C 8,9 C 4,4 C 92 % 1010,1 hPa 0,0 l/m 0 min 0 min 0 W/m 19,3 km/h (3 Bft) 97,83 %
11.04.2023 02:14 9,6 C 8,9 C 4,4 C 92 % 1010,1 hPa 0,0 l/m 0 min 0 min 0 W/m 16,1 km/h (3 Bft) 88,89 %
11.04.2023 02:16 9,7 C 8,9 C 4,4 C 92 % 1010,1 hPa 0,0 l/m 0 min 0 min 0 W/m 19,3 km/h (3 Bft) 97,87 %
11.04.2023 02:18 9,7 C 8,9 C 4,4 C 92 % 1010,2 hPa 0,0 l/m 0 min 0 min 0 W/m 19,3 km/h (3 Bft) 100,00 %
11.04.2023 02:20 9,7 C 8,9 C 4,4 C 91 % 1010,1 hPa 0,0 l/m 0 min 0 min 0 W/m 29,0 km/h (5 Bft) 100,00 %
11.04.2023 02:22 9,7 C 8,9 C 4,4 C 91 % 1010,1 hPa 0,0 l/m 0 min 0 min 0 W/m 29,0 km/h (5 Bft) 97,87 %
11.04.2023 02:24 9,7 C 8,9 C 4,4 C 91 % 1010,1 hPa 0,0 l/m 0 min 0 min 0 W/m 19,3 km/h (3 Bft) 97,87 %
11.04.2023 02:26 9,7 C 8,9 C 4,4 C 91 % 1010,1 hPa 0,0 l/m 0 min 0 min 0 W/m 16,1 km/h (3 Bft) 95,74 %
11.04.2023 02:28 9,8 C 8,9 C 4,4 C 91 % 1010,1 hPa 0,0 l/m 0 min 0 min 0 W/m 19,3 km/h (3 Bft) 97,87 %
11.04.2023 02:30 9,8 C 8,9 C 4,4 C 91 % 1010,0 hPa 0,0 l/m 0 min 0 min 0 W/m 16,1 km/h (3 Bft) 97,83 %
11.04.2023 02:32 9,8 C 8,9 C 4,4 C 91 % 1010,1 hPa 0,0 l/m 0 min 0 min 0 W/m 16,1 km/h (3 Bft) 95,74 %
11.04.2023 02:34 9,8 C 8,9 C 4,4 C 91 % 1010,1 hPa 0,0 l/m 0 min 0 min 0 W/m 16,1 km/h (3 Bft) 93,62 %
11.04.2023 02:36 9,8 C 8,9 C 4,4 C 91 % 1010,1 hPa 0,0 l/m 0 min 0 min 0 W/m 19,3 km/h (3 Bft) 95,74 %
11.04.2023 02:38 9,8 C 8,9 C 4,4 C 91 % 1010,1 hPa 0,0 l/m 0 min 0 min 0 W/m 19,3 km/h (3 Bft) 97,87 %
11.04.2023 02:40 9,8 C 8,9 C 4,4 C 91 % 1010,1 hPa 0,0 l/m 0 min 0 min 0 W/m 12,9 km/h (3 Bft) 97,87 %
11.04.2023 02:42 9,8 C 8,9 C 4,4 C 91 % 1010,1 hPa 0,0 l/m 0 min 0 min 0 W/m 12,9 km/h (3 Bft) 97,87 %
11.04.2023 02:44 9,8 C 8,9 C 4,4 C 91 % 1010,1 hPa 0,0 l/m 0 min 0 min 0 W/m 19,3 km/h (3 Bft) 97,87 %
11.04.2023 02:46 9,8 C 8,9 C 5,0 C 90 % 1010,1 hPa 0,0 l/m 0 min 0 min 0 W/m 6,4 km/h (2 Bft) 97,83 %
11.04.2023 02:48 9,8 C 8,9 C 5,0 C 90 % 1010,1 hPa 0,0 l/m 0 min 0 min 0 W/m 12,9 km/h (3 Bft) 97,87 %
11.04.2023 02:50 9,8 C 8,9 C 5,0 C 90 % 1010,1 hPa 0,0 l/m 0 min 0 min 0 W/m 16,1 km/h (3 Bft) 97,87 %
11.04.2023 02:52 9,8 C 8,9 C 5,0 C 90 % 1010,1 hPa 0,0 l/m 0 min 0 min 0 W/m 16,1 km/h (3 Bft) 97,87 %
11.04.2023 02:54 9,8 C 8,9 C 5,0 C 90 % 1010,2 hPa 0,0 l/m 0 min 0 min 0 W/m 12,9 km/h (3 Bft) 98,15 %
11.04.2023 02:56 9,8 C 8,9 C 5,0 C 90 % 1010,2 hPa 0,0 l/m 0 min 0 min 0 W/m 12,9 km/h (3 Bft) 97,87 %
11.04.2023 02:58 9,8 C 8,9 C 5,0 C 90 % 1010,2 hPa 0,0 l/m 0 min 0 min 0 W/m 12,9 km/h (3 Bft) 97,87 %
11.04.2023 03:00 9,8 C 8,9 C 5,0 C 90 % 1010,2 hPa 0,0 l/m 0 min 0 min 0 W/m 12,9 km/h (3 Bft) 97,87 %
11.04.2023 03:02 9,8 C 8,9 C 5,0 C 90 % 1010,1 hPa 0,0 l/m 0 min 0 min 0 W/m 12,9 km/h (3 Bft) 94,44 %
11.04.2023 03:04 9,8 C 8,9 C 5,0 C 90 % 1010,1 hPa 0,0 l/m 0 min 0 min 0 W/m 22,5 km/h (4 Bft) 97,87 %
11.04.2023 03:06 9,8 C 8,9 C 5,0 C 90 % 1010,2 hPa 0,0 l/m 0 min 0 min 0 W/m 16,1 km/h (3 Bft) 98,31 %
11.04.2023 03:08 9,7 C 8,9 C 5,0 C 90 % 1010,2 hPa 0,0 l/m 0 min 0 min 0 W/m 12,9 km/h (3 Bft) 100,00 %
11.04.2023 03:10 9,7 C 8,9 C 5,0 C 90 % 1010,2 hPa 0,0 l/m 0 min 0 min 0 W/m 12,9 km/h (3 Bft) 100,00 %
11.04.2023 03:12 9,7 C 8,9 C 5,0 C 90 % 1010,2 hPa 0,0 l/m 0 min 0 min 0 W/m 12,9 km/h (3 Bft) 97,87 %
11.04.2023 03:14 9,7 C 8,9 C 5,0 C 90 % 1010,1 hPa 0,0 l/m 0 min 0 min 0 W/m 19,3 km/h (3 Bft) 100,00 %
11.04.2023 03:16 9,7 C 8,9 C 5,0 C 90 % 1010,1 hPa 0,0 l/m 0 min 0 min 0 W/m 16,1 km/h (3 Bft) 100,00 %
11.04.2023 03:18 9,7 C 8,9 C 5,0 C 90 % 1010,1 hPa 0,0 l/m 0 min 0 min 0 W/m 12,9 km/h (3 Bft) 100,00 %
11.04.2023 03:20 9,7 C 8,9 C 5,0 C 90 % 1010,1 hPa 0,0 l/m 0 min 0 min 0 W/m 12,9 km/h (3 Bft) 97,87 %
11.04.2023 03:22 9,7 C 8,9 C 5,0 C 90 % 1010,1 hPa 0,0 l/m 0 min 0 min 0 W/m 19,3 km/h (3 Bft) 100,00 %
11.04.2023 03:24 9,7 C 8,9 C 5,0 C 89 % 1010,1 hPa 0,0 l/m 0 min 0 min 0 W/m 16,1 km/h (3 Bft) 98,00 %
11.04.2023 03:26 9,7 C 8,9 C 5,0 C 89 % 1010,1 hPa 0,0 l/m 0 min 0 min 0 W/m 19,3 km/h (3 Bft) 100,00 %
11.04.2023 03:28 9,7 C 8,9 C 5,0 C 89 % 1010,1 hPa 0,0 l/m 0 min 0 min 0 W/m 16,1 km/h (3 Bft) 100,00 %
11.04.2023 03:30 9,6 C 8,9 C 5,0 C 89 % 1010,1 hPa 0,0 l/m 0 min 0 min 0 W/m 25,7 km/h (4 Bft) 100,00 %
11.04.2023 03:32 9,6 C 8,9 C 5,0 C 89 % 1010,2 hPa 0,0 l/m 0 min 0 min 0 W/m 19,3 km/h (3 Bft) 100,00 %
11.04.2023 03:34 9,6 C 8,9 C 5,0 C 89 % 1010,1 hPa 0,0 l/m 0 min 0 min 0 W/m 16,1 km/h (3 Bft) 100,00 %
11.04.2023 03:36 9,6 C 8,9 C 5,0 C 89 % 1010,1 hPa 0,0 l/m 0 min 0 min 0 W/m 22,5 km/h (4 Bft) 100,00 %
11.04.2023 03:38 9,6 C 8,9 C 5,0 C 89 % 1010,1 hPa 0,0 l/m 0 min 0 min 0 W/m 16,1 km/h (3 Bft) 100,00 %
11.04.2023 03:40 9,6 C 8,9 C 5,0 C 89 % 1010,1 hPa 0,0 l/m 0 min 0 min 0 W/m 16,1 km/h (3 Bft) 100,00 %
11.04.2023 03:42 9,6 C 8,9 C 5,0 C 89 % 1010,0 hPa 0,0 l/m 0 min 0 min 0 W/m 12,9 km/h (3 Bft) 97,83 %
11.04.2023 03:44 9,6 C 8,9 C 5,0 C 89 % 1010,1 hPa 0,0 l/m 0 min 0 min 0 W/m 16,1 km/h (3 Bft) 97,67 %
11.04.2023 03:46 9,6 C 8,9 C 5,0 C 88 % 1010,0 hPa 0,0 l/m 0 min 0 min 0 W/m 16,1 km/h (3 Bft) 100,00 %
11.04.2023 03:48 9,6 C 8,9 C 5,0 C 88 % 1010,1 hPa 0,0 l/m 0 min 0 min 0 W/m 16,1 km/h (3 Bft) 97,87 %
11.04.2023 03:50 9,5 C 8,3 C 5,0 C 88 % 1010,1 hPa 0,0 l/m 0 min 0 min 0 W/m 16,1 km/h (3 Bft) 100,00 %
11.04.2023 03:52 9,5 C 8,3 C 5,0 C 88 % 1010,2 hPa 0,0 l/m 0 min 0 min 0 W/m 12,9 km/h (3 Bft) 100,00 %
11.04.2023 03:54 9,4 C 8,3 C 5,0 C 88 % 1010,3 hPa 0,0 l/m 0 min 0 min 0 W/m 12,9 km/h (3 Bft) 100,00 %
11.04.2023 03:56 9,4 C 8,3 C 5,0 C 88 % 1010,3 hPa 0,0 l/m 0 min 0 min 0 W/m 12,9 km/h (3 Bft) 97,87 %
11.04.2023 03:58 9,3 C 8,3 C 5,0 C 89 % 1010,2 hPa 0,0 l/m 0 min 0 min 0 W/m 12,9 km/h (3 Bft) 97,87 %
11.04.2023 04:00 9,3 C 8,3 C 5,0 C 89 % 1010,2 hPa 0,0 l/m 0 min 0 min 0 W/m 12,9 km/h (3 Bft) 95,74 %
11.04.2023 04:02 9,3 C 8,3 C 5,0 C 89 % 1010,2 hPa 0,0 l/m 0 min 0 min 0 W/m 12,9 km/h (3 Bft) 95,74 %
11.04.2023 04:04 9,2 C 8,3 C 5,0 C 89 % 1010,3 hPa 0,0 l/m 0 min 0 min 0 W/m 19,3 km/h (3 Bft) 95,74 %
11.04.2023 04:06 9,2 C 8,3 C 5,0 C 89 % 1010,3 hPa 0,0 l/m 0 min 0 min 0 W/m 12,9 km/h (3 Bft) 97,87 %
11.04.2023 04:08 9,2 C 8,3 C 5,0 C 89 % 1010,3 hPa 0,0 l/m 0 min 0 min 0 W/m 19,3 km/h (3 Bft) 97,87 %
11.04.2023 04:10 9,1 C 8,3 C 5,0 C 89 % 1010,3 hPa 0,0 l/m 0 min 0 min 0 W/m 12,9 km/h (3 Bft) 97,83 %
11.04.2023 04:12 9,1 C 8,3 C 5,0 C 89 % 1010,3 hPa 0,0 l/m 0 min 0 min 0 W/m 16,1 km/h (3 Bft) 95,92 %
11.04.2023 04:14 9,1 C 8,3 C 5,0 C 89 % 1010,3 hPa 0,0 l/m 0 min 0 min 0 W/m 12,9 km/h (3 Bft) 97,14 %
11.04.2023 04:16 9,1 C 8,3 C 5,0 C 89 % 1010,3 hPa 0,0 l/m 0 min 0 min 0 W/m 12,9 km/h (3 Bft) 95,74 %
11.04.2023 04:18 9,1 C 8,3 C 5,0 C 89 % 1010,3 hPa 0,0 l/m 0 min 0 min 0 W/m 12,9 km/h (3 Bft) 97,87 %
11.04.2023 04:20 9,0 C 8,3 C 5,0 C 89 % 1010,4 hPa 0,0 l/m 0 min 0 min 0 W/m 22,5 km/h (4 Bft) 95,74 %
11.04.2023 04:22 9,0 C 8,3 C 5,0 C 89 % 1010,3 hPa 0,0 l/m 0 min 0 min 0 W/m 12,9 km/h (3 Bft) 93,62 %
11.04.2023 04:24 9,0 C 8,3 C 5,0 C 89 % 1010,4 hPa 0,0 l/m 0 min 0 min 0 W/m 25,7 km/h (4 Bft) 95,74 %
11.04.2023 04:26 9,0 C 8,3 C 5,0 C 89 % 1010,3 hPa 0,0 l/m 0 min 0 min 0 W/m 16,1 km/h (3 Bft) 93,62 %
11.04.2023 04:28 9,0 C 8,3 C 5,0 C 89 % 1010,4 hPa 0,0 l/m 0 min 0 min 0 W/m 19,3 km/h (3 Bft) 91,49 %
11.04.2023 04:30 9,0 C 8,3 C 5,0 C 89 % 1010,4 hPa 0,0 l/m 0 min 0 min 0 W/m 29,0 km/h (5 Bft) 93,48 %
11.04.2023 04:32 9,0 C 8,3 C 5,0 C 89 % 1010,4 hPa 0,0 l/m 0 min 0 min 0 W/m 16,1 km/h (3 Bft) 93,62 %
11.04.2023 04:34 9,0 C 8,3 C 5,0 C 89 % 1010,4 hPa 0,0 l/m 0 min 0 min 0 W/m 19,3 km/h (3 Bft) 91,49 %
11.04.2023 04:36 9,0 C 8,3 C 5,0 C 89 % 1010,4 hPa 0,0 l/m 0 min 0 min 0 W/m 16,1 km/h (3 Bft) 93,62 %
11.04.2023 04:38 9,0 C 8,3 C 5,0 C 89 % 1010,4 hPa 0,0 l/m 0 min 0 min 0 W/m 19,3 km/h (3 Bft) 93,62 %
11.04.2023 04:40 9,0 C 8,3 C 5,0 C 89 % 1010,4 hPa 0,0 l/m 0 min 0 min 0 W/m 16,1 km/h (3 Bft) 93,62 %
11.04.2023 04:42 9,0 C 8,3 C 5,0 C 89 % 1010,5 hPa 0,0 l/m 0 min 0 min 0 W/m 19,3 km/h (3 Bft) 93,62 %
11.04.2023 04:44 9,0 C 8,3 C 5,0 C 89 % 1010,4 hPa 0,0 l/m 0 min 0 min 0 W/m 16,1 km/h (3 Bft) 93,62 %
11.04.2023 04:46 9,0 C 8,3 C 5,0 C 89 % 1010,5 hPa 0,0 l/m 0 min 0 min 0 W/m 25,7 km/h (4 Bft) 93,62 %
11.04.2023 04:48 9,0 C 8,3 C 5,0 C 88 % 1010,6 hPa 0,0 l/m 0 min 0 min 0 W/m 19,3 km/h (3 Bft) 90,91 %
11.04.2023 04:50 9,0 C 8,3 C 5,0 C 88 % 1010,6 hPa 0,0 l/m 0 min 0 min 0 W/m 29,0 km/h (5 Bft) 95,92 %
11.04.2023 04:52 9,0 C 8,3 C 5,0 C 88 % 1010,5 hPa 0,0 l/m 0 min 0 min 0 W/m 19,3 km/h (3 Bft) 95,74 %
11.04.2023 04:54 9,0 C 8,3 C 5,0 C 88 % 1010,6 hPa 0,0 l/m 0 min 0 min 0 W/m 12,9 km/h (3 Bft) 93,62 %
11.04.2023 04:56 9,0 C 8,3 C 5,0 C 88 % 1010,5 hPa 0,0 l/m 0 min 0 min 0 W/m 16,1 km/h (3 Bft) 95,74 %
11.04.2023 04:58 9,0 C 8,3 C 5,0 C 88 % 1010,6 hPa 0,0 l/m 0 min 0 min 0 W/m 12,9 km/h (3 Bft) 94,44 %
11.04.2023 05:00 8,9 C 8,3 C 5,0 C 88 % 1010,6 hPa 0,0 l/m 0 min 0 min 0 W/m 16,1 km/h (3 Bft) 97,87 %
11.04.2023 05:02 8,9 C 8,3 C 5,0 C 88 % 1010,5 hPa 0,0 l/m 0 min 0 min 0 W/m 9,7 km/h (2 Bft) 97,87 %
11.04.2023 05:04 8,9 C 8,3 C 5,0 C 88 % 1010,5 hPa 0,0 l/m 0 min 0 min 0 W/m 12,9 km/h (3 Bft) 97,96 %
11.04.2023 05:06 8,9 C 8,3 C 5,0 C 88 % 1010,6 hPa 0,0 l/m 0 min 0 min 0 W/m 16,1 km/h (3 Bft) 100,00 %
11.04.2023 05:08 8,9 C 8,3 C 5,0 C 88 % 1010,6 hPa 0,0 l/m 0 min 0 min 0 W/m 16,1 km/h (3 Bft) 100,00 %
11.04.2023 05:10 8,9 C 8,3 C 5,0 C 88 % 1010,6 hPa 0,0 l/m 0 min 0 min 0 W/m 19,3 km/h (3 Bft) 97,87 %
11.04.2023 05:12 8,9 C 7,8 C 5,0 C 88 % 1010,5 hPa 0,0 l/m 0 min 0 min 0 W/m 16,1 km/h (3 Bft) 97,92 %
11.04.2023 05:14 8,9 C 7,8 C 5,0 C 88 % 1010,6 hPa 0,0 l/m 0 min 0 min 0 W/m 12,9 km/h (3 Bft) 100,00 %
11.04.2023 05:16 8,8 C 7,8 C 4,4 C 88 % 1010,6 hPa 0,0 l/m 0 min 0 min 0 W/m 12,9 km/h (3 Bft) 100,00 %
11.04.2023 05:18 8,8 C 7,8 C 4,4 C 88 % 1010,5 hPa 0,0 l/m 0 min 0 min 0 W/m 16,1 km/h (3 Bft) 100,00 %
11.04.2023 05:20 8,8 C 7,8 C 4,4 C 88 % 1010,5 hPa 0,0 l/m 0 min 0 min 0 W/m 12,9 km/h (3 Bft) 100,00 %
11.04.2023 05:22 8,8 C 7,8 C 4,4 C 88 % 1010,5 hPa 0,0 l/m 0 min 0 min 0 W/m 16,1 km/h (3 Bft) 100,00 %
11.04.2023 05:24 8,7 C 7,8 C 4,4 C 88 % 1010,5 hPa 0,0 l/m 0 min 0 min 0 W/m 12,9 km/h (3 Bft) 100,00 %
11.04.2023 05:26 8,7 C 7,8 C 4,4 C 88 % 1010,6 hPa 0,0 l/m 0 min 0 min 0 W/m 9,7 km/h (2 Bft) 100,00 %
11.04.2023 05:28 8,7 C 7,8 C 4,4 C 88 % 1010,5 hPa 0,0 l/m 0 min 0 min 0 W/m 22,5 km/h (4 Bft) 100,00 %
11.04.2023 05:30 8,7 C 7,8 C 4,4 C 88 % 1010,5 hPa 0,0 l/m 0 min 0 min 0 W/m 12,9 km/h (3 Bft) 100,00 %
11.04.2023 05:32 8,7 C 7,8 C 4,4 C 88 % 1010,6 hPa 0,0 l/m 0 min 0 min 0 W/m 22,5 km/h (4 Bft) 97,96 %
11.04.2023 05:34 8,7 C 7,8 C 4,4 C 88 % 1010,6 hPa 0,0 l/m 0 min 0 min 0 W/m 19,3 km/h (3 Bft) 56,52 %
11.04.2023 05:36 8,7 C 7,8 C 4,4 C 88 % 1010,6 hPa 0,0 l/m 0 min 0 min 0 W/m 19,3 km/h (3 Bft) 100,00 %
11.04.2023 05:38 8,7 C 7,8 C 4,4 C 88 % 1010,7 hPa 0,0 l/m 0 min 0 min 0 W/m 16,1 km/h (3 Bft) 100,00 %
11.04.2023 05:40 8,7 C 7,8 C 4,4 C 88 % 1010,6 hPa 0,0 l/m 0 min 0 min 0 W/m 16,1 km/h (3 Bft) 100,00 %
11.04.2023 05:42 8,7 C 7,8 C 5,0 C 88 % 1010,7 hPa 0,0 l/m 0 min 0 min 0 W/m 16,1 km/h (3 Bft) 97,83 %
11.04.2023 05:44 8,7 C 7,8 C 5,0 C 88 % 1010,7 hPa 0,0 l/m 0 min 0 min 0 W/m 16,1 km/h (3 Bft) 100,00 %
11.04.2023 05:46 8,7 C 7,8 C 5,0 C 88 % 1010,7 hPa 0,0 l/m 0 min 0 min 0 W/m 16,1 km/h (3 Bft) 100,00 %
11.04.2023 05:48 8,8 C 8,3 C 5,0 C 88 % 1010,9 hPa 0,0 l/m 0 min 0 min 0 W/m 19,3 km/h (3 Bft) 100,00 %
11.04.2023 05:50 8,8 C 7,8 C 5,0 C 88 % 1010,8 hPa 0,0 l/m 0 min 0 min 0 W/m 12,9 km/h (3 Bft) 100,00 %
11.04.2023 05:52 8,8 C 7,8 C 4,4 C 88 % 1010,8 hPa 0,0 l/m 0 min 0 min 0 W/m 12,9 km/h (3 Bft) 100,00 %
11.04.2023 05:54 8,8 C 7,8 C 5,0 C 88 % 1010,9 hPa 0,0 l/m 0 min 0 min 0 W/m 16,1 km/h (3 Bft) 100,00 %
11.04.2023 05:56 8,8 C 7,8 C 5,0 C 88 % 1011,1 hPa 0,0 l/m 0 min 0 min 0 W/m 19,3 km/h (3 Bft) 100,00 %
11.04.2023 05:58 8,8 C 8,3 C 5,0 C 88 % 1011,0 hPa 0,0 l/m 0 min 0 min 0 W/m 16,1 km/h (3 Bft) 100,00 %
11.04.2023 06:00 8,8 C 8,3 C 5,0 C 88 % 1011,0 hPa 0,0 l/m 0 min 0 min 0 W/m 12,9 km/h (3 Bft) 100,00 %
11.04.2023 06:02 8,8 C 8,3 C 5,0 C 88 % 1011,0 hPa 0,0 l/m 0 min 0 min 0 W/m 19,3 km/h (3 Bft) 100,00 %
11.04.2023 06:04 8,8 C 8,3 C 5,0 C 88 % 1011,0 hPa 0,0 l/m 0 min 0 min 0 W/m 16,1 km/h (3 Bft) 100,00 %
11.04.2023 06:07 8,8 C 8,3 C 5,0 C 88 % 1011,1 hPa 0,0 l/m 0 min 0 min 0 W/m 19,3 km/h (3 Bft) 100,00 %
11.04.2023 06:08 8,8 C 8,3 C 5,0 C 87 % 1011,1 hPa 0,0 l/m 0 min 0 min 0 W/m 16,1 km/h (3 Bft) 100,00 %
11.04.2023 06:12 8,8 C 8,3 C 5,0 C 87 % 1011,1 hPa 0,0 l/m 0 min 0 min 0 W/m 22,5 km/h (4 Bft) 98,21 %
11.04.2023 06:14 8,8 C 8,3 C 5,0 C 87 % 1011,0 hPa 0,0 l/m 0 min 0 min 0 W/m 22,5 km/h (4 Bft) 97,83 %
11.04.2023 06:16 8,8 C 8,3 C 5,0 C 87 % 1011,1 hPa 0,0 l/m 0 min 0 min 0 W/m 16,1 km/h (3 Bft) 97,87 %
11.04.2023 06:18 8,8 C 8,3 C 5,0 C 86 % 1011,0 hPa 0,0 l/m 0 min 0 min 0 W/m 12,9 km/h (3 Bft) 97,87 %
11.04.2023 06:20 8,8 C 8,3 C 5,0 C 86 % 1011,0 hPa 0,0 l/m 0 min 0 min 0 W/m 22,5 km/h (4 Bft) 97,87 %
11.04.2023 06:22 8,8 C 8,3 C 5,0 C 86 % 1011,0 hPa 0,0 l/m 0 min 0 min 0 W/m 16,1 km/h (3 Bft) 93,62 %
11.04.2023 06:24 8,8 C 7,8 C 5,0 C 86 % 1011,0 hPa 0,0 l/m 0 min 0 min 0 W/m 29,0 km/h (5 Bft) 97,87 %
11.04.2023 06:26 8,8 C 7,8 C 4,4 C 86 % 1011,0 hPa 0,0 l/m 0 min 0 min 0 W/m 16,1 km/h (3 Bft) 97,87 %
11.04.2023 06:28 8,8 C 7,8 C 4,4 C 86 % 1011,1 hPa 0,0 l/m 0 min 0 min 0 W/m 16,1 km/h (3 Bft) 97,87 %
11.04.2023 06:30 8,7 C 7,8 C 4,4 C 86 % 1011,1 hPa 0,0 l/m 0 min 0 min 0 W/m 19,3 km/h (3 Bft) 97,87 %
11.04.2023 06:32 8,7 C 7,8 C 4,4 C 86 % 1011,1 hPa 0,0 l/m 0 min 0 min 0 W/m 19,3 km/h (3 Bft) 97,83 %
11.04.2023 06:34 8,7 C 7,8 C 4,4 C 86 % 1011,1 hPa 0,0 l/m 0 min 0 min 0 W/m 16,1 km/h (3 Bft) 97,87 %
11.04.2023 06:36 8,7 C 7,8 C 4,4 C 86 % 1011,3 hPa 0,0 l/m 0 min 0 min 0 W/m 22,5 km/h (4 Bft) 97,87 %
11.04.2023 06:38 8,7 C 7,8 C 4,4 C 86 % 1011,2 hPa 0,0 l/m 0 min 0 min 0 W/m 16,1 km/h (3 Bft) 97,87 %
11.04.2023 06:40 8,7 C 7,8 C 4,4 C 86 % 1011,2 hPa 0,0 l/m 0 min 0 min 0 W/m 12,9 km/h (3 Bft) 95,74 %
11.04.2023 06:42 8,7 C 7,8 C 4,4 C 86 % 1011,3 hPa 0,0 l/m 0 min 0 min 0 W/m 22,5 km/h (4 Bft) 97,87 %
11.04.2023 06:44 8,7 C 7,8 C 4,4 C 86 % 1011,3 hPa 0,0 l/m 0 min 0 min 0 W/m 16,1 km/h (3 Bft) 97,87 %
11.04.2023 06:46 8,7 C 7,8 C 4,4 C 86 % 1011,3 hPa 0,0 l/m 0 min 0 min 0 W/m 12,9 km/h (3 Bft) 95,74 %
11.04.2023 06:48 8,7 C 7,8 C 4,4 C 86 % 1011,3 hPa 0,0 l/m 0 min 0 min 0 W/m 19,3 km/h (3 Bft) 97,87 %
11.04.2023 06:50 8,7 C 7,8 C 4,4 C 86 % 1011,3 hPa 0,0 l/m 0 min 0 min 0 W/m 16,1 km/h (3 Bft) 95,74 %
11.04.2023 06:52 8,7 C 7,8 C 4,4 C 86 % 1011,4 hPa 0,0 l/m 0 min 0 min 0 W/m 35,4 km/h (5 Bft) 97,83 %
11.04.2023 06:54 8,7 C 7,8 C 4,4 C 86 % 1011,3 hPa 0,0 l/m 0 min 0 min 2 W/m 22,5 km/h (4 Bft) 97,87 %
11.04.2023 06:56 8,7 C 7,8 C 4,4 C 86 % 1011,4 hPa 0,0 l/m 0 min 0 min 5 W/m 19,3 km/h (3 Bft) 97,87 %
11.04.2023 06:58 8,7 C 7,8 C 4,4 C 86 % 1011,4 hPa 0,0 l/m 0 min 0 min 5 W/m 9,7 km/h (2 Bft) 95,74 %
11.04.2023 07:00 8,7 C 7,8 C 4,4 C 86 % 1011,4 hPa 0,0 l/m 0 min 0 min 6 W/m 19,3 km/h (3 Bft) 97,87 %
11.04.2023 07:02 8,7 C 7,8 C 4,4 C 85 % 1011,5 hPa 0,0 l/m 0 min 0 min 7 W/m 22,5 km/h (4 Bft) 95,74 %
11.04.2023 07:04 8,7 C 7,8 C 4,4 C 85 % 1011,5 hPa 0,0 l/m 0 min 0 min 8 W/m 19,3 km/h (3 Bft) 93,62 %
11.04.2023 07:06 8,7 C 7,8 C 4,4 C 85 % 1011,5 hPa 0,0 l/m 0 min 0 min 9 W/m 16,1 km/h (3 Bft) 93,10 %
11.04.2023 07:08 8,7 C 7,8 C 4,4 C 85 % 1011,5 hPa 0,0 l/m 0 min 0 min 7 W/m 19,3 km/h (3 Bft) 94,44 %
11.04.2023 07:10 8,7 C 7,8 C 4,4 C 85 % 1011,4 hPa 0,0 l/m 0 min 0 min 5 W/m 19,3 km/h (3 Bft) 93,62 %
11.04.2023 07:12 8,7 C 7,8 C 5,0 C 85 % 1011,5 hPa 0,0 l/m 0 min 0 min 7 W/m 22,5 km/h (4 Bft) 93,48 %
11.04.2023 07:14 8,7 C 7,8 C 4,4 C 85 % 1011,6 hPa 0,0 l/m 0 min 0 min 10 W/m 12,9 km/h (3 Bft) 95,74 %
11.04.2023 07:16 8,7 C 7,8 C 4,4 C 85 % 1011,5 hPa 0,0 l/m 0 min 0 min 13 W/m 16,1 km/h (3 Bft) 95,74 %
11.04.2023 07:18 8,7 C 7,8 C 4,4 C 85 % 1011,8 hPa 0,0 l/m 0 min 0 min 10 W/m 25,7 km/h (4 Bft) 93,62 %
11.04.2023 07:20 8,7 C 7,8 C 4,4 C 85 % 1011,7 hPa 0,0 l/m 0 min 0 min 8 W/m 22,5 km/h (4 Bft) 95,74 %
11.04.2023 07:22 8,7 C 7,8 C 4,4 C 85 % 1011,8 hPa 0,0 l/m 0 min 0 min 6 W/m 12,9 km/h (3 Bft) 93,62 %
11.04.2023 07:24 8,7 C 7,8 C 4,4 C 85 % 1011,8 hPa 0,0 l/m 0 min 0 min 7 W/m 22,5 km/h (4 Bft) 91,49 %
11.04.2023 07:26 8,7 C 7,8 C 4,4 C 85 % 1011,8 hPa 0,0 l/m 0 min 0 min 9 W/m 19,3 km/h (3 Bft) 95,74 %
11.04.2023 07:28 8,7 C 7,8 C 4,4 C 85 % 1011,9 hPa 0,0 l/m 0 min 0 min 11 W/m 16,1 km/h (3 Bft) 95,74 %
11.04.2023 07:30 8,7 C 7,8 C 4,4 C 86 % 1011,9 hPa 0,0 l/m 0 min 0 min 12 W/m 16,1 km/h (3 Bft) 91,49 %
11.04.2023 07:32 8,7 C 7,8 C 4,4 C 86 % 1011,9 hPa 0,0 l/m 0 min 0 min 18 W/m 16,1 km/h (3 Bft) 95,65 %
11.04.2023 07:34 8,7 C 7,8 C 4,4 C 86 % 1011,8 hPa 0,0 l/m 0 min 0 min 11 W/m 19,3 km/h (3 Bft) 93,62 %
11.04.2023 07:36 8,7 C 7,8 C 4,4 C 86 % 1011,9 hPa 0,0 l/m 0 min 0 min 6 W/m 16,1 km/h (3 Bft) 95,74 %
11.04.2023 07:38 8,7 C 7,8 C 4,4 C 86 % 1011,9 hPa 0,0 l/m 0 min 0 min 5 W/m 12,9 km/h (3 Bft) 97,87 %
11.04.2023 07:40 8,7 C 7,8 C 4,4 C 86 % 1012,0 hPa 0,0 l/m 0 min 0 min 10 W/m 12,9 km/h (3 Bft) 95,74 %
11.04.2023 07:42 8,7 C 7,8 C 4,4 C 86 % 1012,0 hPa 0,0 l/m 0 min 0 min 14 W/m 12,9 km/h (3 Bft) 93,62 %
11.04.2023 07:44 8,7 C 7,8 C 4,4 C 86 % 1012,0 hPa 0,0 l/m 0 min 0 min 15 W/m 12,9 km/h (3 Bft) 97,87 %
11.04.2023 07:46 8,6 C 7,8 C 4,4 C 86 % 1012,1 hPa 0,0 l/m 0 min 0 min 19 W/m 19,3 km/h (3 Bft) 95,74 %
11.04.2023 07:48 8,6 C 7,8 C 4,4 C 86 % 1012,1 hPa 0,0 l/m 0 min 0 min 25 W/m 19,3 km/h (3 Bft) 95,74 %
11.04.2023 07:50 8,6 C 7,8 C 4,4 C 86 % 1012,1 hPa 0,0 l/m 0 min 0 min 33 W/m 29,0 km/h (5 Bft) 100,00 %
11.04.2023 07:52 8,6 C 7,8 C 4,4 C 85 % 1012,2 hPa 0,0 l/m 0 min 0 min 38 W/m 22,5 km/h (4 Bft) 100,00 %
11.04.2023 07:54 8,6 C 8,3 C 4,4 C 85 % 1012,1 hPa 0,0 l/m 0 min 0 min 48 W/m 19,3 km/h (3 Bft) 97,87 %
11.04.2023 07:56 8,6 C 8,3 C 4,4 C 85 % 1012,3 hPa 0,0 l/m 0 min 0 min 56 W/m 12,9 km/h (3 Bft) 97,87 %
11.04.2023 07:58 8,6 C 8,3 C 5,0 C 85 % 1012,2 hPa 0,0 l/m 0 min 0 min 74 W/m 19,3 km/h (3 Bft) 100,00 %
11.04.2023 08:00 8,6 C 8,3 C 5,0 C 85 % 1012,3 hPa 0,0 l/m 0 min 0 min 58 W/m 22,5 km/h (4 Bft) 95,74 %
11.04.2023 08:02 8,7 C 8,3 C 5,0 C 85 % 1012,3 hPa 0,0 l/m 0 min 0 min 46 W/m 12,9 km/h (3 Bft) 100,00 %
11.04.2023 08:04 8,7 C 8,3 C 5,0 C 85 % 1012,4 hPa 0,0 l/m 0 min 0 min 65 W/m 16,1 km/h (3 Bft) 97,67 %
11.04.2023 08:06 8,7 C 8,3 C 5,0 C 85 % 1012,4 hPa 0,0 l/m 0 min 0 min 79 W/m 19,3 km/h (3 Bft) 97,87 %
11.04.2023 08:08 8,7 C 8,3 C 5,0 C 85 % 1012,4 hPa 0,0 l/m 0 min 0 min 68 W/m 16,1 km/h (3 Bft) 100,00 %
11.04.2023 08:10 8,7 C 8,3 C 5,0 C 85 % 1012,5 hPa 0,0 l/m 0 min 0 min 58 W/m 16,1 km/h (3 Bft) 100,00 %
11.04.2023 08:12 8,7 C 8,3 C 5,0 C 85 % 1012,5 hPa 0,0 l/m 0 min 0 min 65 W/m 19,3 km/h (3 Bft) 97,87 %
11.04.2023 08:14 8,7 C 8,3 C 5,0 C 85 % 1012,4 hPa 0,0 l/m 0 min 0 min 72 W/m 19,3 km/h (3 Bft) 100,00 %
11.04.2023 08:16 8,7 C 8,3 C 5,0 C 85 % 1012,5 hPa 0,0 l/m 0 min 0 min 66 W/m 25,7 km/h (4 Bft) 97,83 %
11.04.2023 08:18 8,7 C 8,3 C 5,0 C 85 % 1012,5 hPa 0,0 l/m 0 min 0 min 83 W/m 16,1 km/h (3 Bft) 95,74 %
11.04.2023 08:20 8,8 C 8,3 C 5,0 C 85 % 1012,5 hPa 0,0 l/m 0 min 0 min 94 W/m 12,9 km/h (3 Bft) 97,87 %
11.04.2023 08:22 8,8 C 8,3 C 5,0 C 85 % 1012,5 hPa 0,0 l/m 0 min 0 min 78 W/m 19,3 km/h (3 Bft) 97,87 %
11.04.2023 08:24 8,8 C 8,3 C 5,0 C 84 % 1012,6 hPa 0,0 l/m 0 min 0 min 76 W/m 16,1 km/h (3 Bft) 97,87 %
11.04.2023 08:26 8,8 C 8,3 C 5,0 C 84 % 1012,6 hPa 0,0 l/m 0 min 0 min 65 W/m 12,9 km/h (3 Bft) 97,87 %
11.04.2023 08:28 8,8 C 8,3 C 5,0 C 84 % 1012,6 hPa 0,0 l/m 0 min 0 min 91 W/m 22,5 km/h (4 Bft) 97,87 %
11.04.2023 08:30 8,8 C 8,3 C 5,0 C 84 % 1012,7 hPa 0,0 l/m 0 min 0 min 97 W/m 19,3 km/h (3 Bft) 97,87 %
11.04.2023 08:32 8,8 C 8,9 C 5,0 C 84 % 1012,6 hPa 0,0 l/m 0 min 0 min 109 W/m 29,0 km/h (5 Bft) 95,74 %
11.04.2023 08:34 8,8 C 8,3 C 5,0 C 84 % 1012,9 hPa 0,0 l/m 0 min 0 min 109 W/m 41,8 km/h (6 Bft) 97,83 %
11.04.2023 08:36 8,8 C 8,9 C 5,0 C 84 % 1012,7 hPa 0,0 l/m 0 min 0 min 86 W/m 12,9 km/h (3 Bft) 95,74 %
11.04.2023 08:38 8,8 C 8,9 C 5,0 C 84 % 1012,8 hPa 0,0 l/m 0 min 0 min 90 W/m 29,0 km/h (5 Bft) 97,87 %
11.04.2023 08:40 8,8 C 8,3 C 5,0 C 84 % 1012,8 hPa 0,0 l/m 0 min 0 min 104 W/m 32,2 km/h (5 Bft) 98,15 %
11.04.2023 08:42 8,9 C 8,9 C 5,0 C 84 % 1012,8 hPa 0,0 l/m 0 min 0 min 90 W/m 19,3 km/h (3 Bft) 63,83 %
11.04.2023 08:44 8,9 C 8,3 C 5,0 C 84 % 1012,8 hPa 0,0 l/m 0 min 0 min 78 W/m 19,3 km/h (3 Bft) 85,71 %
11.04.2023 08:46 8,9 C 8,9 C 5,0 C 84 % 1012,8 hPa 0,0 l/m 0 min 0 min 103 W/m 12,9 km/h (3 Bft) 95,74 %
11.04.2023 08:48 8,9 C 8,9 C 5,0 C 85 % 1012,8 hPa 0,0 l/m 0 min 0 min 101 W/m 19,3 km/h (3 Bft) 100,00 %
11.04.2023 08:50 8,9 C 8,3 C 5,0 C 84 % 1012,9 hPa 0,0 l/m 0 min 0 min 97 W/m 19,3 km/h (3 Bft) 100,00 %
11.04.2023 08:52 8,9 C 8,9 C 5,0 C 84 % 1012,8 hPa 0,0 l/m 0 min 0 min 95 W/m 12,9 km/h (3 Bft) 97,87 %
11.04.2023 08:54 8,9 C 8,9 C 5,0 C 84 % 1012,8 hPa 0,0 l/m 0 min 0 min 127 W/m 16,1 km/h (3 Bft) 100,00 %
11.04.2023 08:56 9,0 C 8,9 C 5,0 C 85 % 1012,9 hPa 0,0 l/m 0 min 0 min 96 W/m 12,9 km/h (3 Bft) 100,00 %
11.04.2023 08:58 8,9 C 8,9 C 5,0 C 84 % 1013,0 hPa 0,0 l/m 0 min 0 min 79 W/m 22,5 km/h (4 Bft) 100,00 %
11.04.2023 09:00 8,9 C 8,3 C 5,0 C 84 % 1012,9 hPa 0,0 l/m 0 min 0 min 92 W/m 19,3 km/h (3 Bft) 97,87 %
11.04.2023 09:02 8,9 C 8,9 C 5,0 C 84 % 1012,9 hPa 0,0 l/m 2 min 0 min 168 W/m 41,8 km/h (6 Bft) 100,00 %
11.04.2023 09:04 8,9 C 8,9 C 5,0 C 84 % 1013,0 hPa 0,0 l/m 2 min 0 min 218 W/m 16,1 km/h (3 Bft) 100,00 %
11.04.2023 09:06 8,9 C 9,4 C 5,0 C 84 % 1013,0 hPa 0,0 l/m 0 min 0 min 162 W/m 12,9 km/h (3 Bft) 100,00 %
11.04.2023 09:08 9,0 C 8,9 C 5,0 C 84 % 1013,0 hPa 0,0 l/m 0 min 0 min 162 W/m 19,3 km/h (3 Bft) 100,00 %
11.04.2023 09:10 9,1 C 8,9 C 5,0 C 84 % 1013,0 hPa 0,0 l/m 0 min 0 min 88 W/m 16,1 km/h (3 Bft) 97,87 %
11.04.2023 09:12 9,0 C 8,9 C 5,0 C 84 % 1012,9 hPa 0,0 l/m 0 min 0 min 129 W/m 19,3 km/h (3 Bft) 100,00 %
11.04.2023 09:14 9,1 C 9,4 C 5,0 C 84 % 1013,0 hPa 0,0 l/m 0 min 0 min 143 W/m 12,9 km/h (3 Bft) 100,00 %
11.04.2023 09:16 9,1 C 10,6 C 5,6 C 84 % 1013,1 hPa 0,0 l/m 0 min 0 min 175 W/m 22,5 km/h (4 Bft) 95,74 %
11.04.2023 09:18 9,1 C 11,7 C 5,6 C 84 % 1013,1 hPa 0,0 l/m 2 min 0 min 231 W/m 19,3 km/h (3 Bft) 100,00 %
11.04.2023 09:20 9,2 C 11,7 C 5,6 C 84 % 1013,1 hPa 0,0 l/m 2 min 0 min 299 W/m 25,7 km/h (4 Bft) 100,00 %
11.04.2023 09:22 9,2 C 11,1 C 5,6 C 83 % 1013,1 hPa 0,0 l/m 0 min 0 min 168 W/m 19,3 km/h (3 Bft) 100,00 %
11.04.2023 09:24 9,3 C 10,6 C 5,6 C 83 % 1013,1 hPa 0,0 l/m 0 min 0 min 160 W/m 19,3 km/h (3 Bft) 100,00 %
11.04.2023 09:26 9,3 C 11,7 C 5,6 C 83 % 1013,1 hPa 0,0 l/m 0 min 0 min 169 W/m 22,5 km/h (4 Bft) 97,87 %
11.04.2023 09:28 9,4 C 10,6 C 5,6 C 82 % 1013,1 hPa 0,0 l/m 0 min 0 min 151 W/m 19,3 km/h (3 Bft) 97,87 %
11.04.2023 09:30 9,4 C 11,1 C 5,6 C 82 % 1013,1 hPa 0,0 l/m 0 min 0 min 197 W/m 19,3 km/h (3 Bft) 100,00 %
11.04.2023 09:32 9,4 C 11,7 C 6,1 C 81 % 1013,1 hPa 0,0 l/m 2 min 0 min 472 W/m 25,7 km/h (4 Bft) 100,00 %
11.04.2023 09:34 9,4 C 10,6 C 6,1 C 81 % 1013,2 hPa 0,0 l/m 0 min 0 min 128 W/m 25,7 km/h (4 Bft) 95,74 %
11.04.2023 09:36 9,5 C 10,0 C 5,6 C 81 % 1013,1 hPa 0,0 l/m 0 min 0 min 84 W/m 16,1 km/h (3 Bft) 97,87 %
11.04.2023 09:38 9,5 C 11,1 C 6,1 C 82 % 1013,0 hPa 0,0 l/m 2 min 0 min 242 W/m 16,1 km/h (3 Bft) 100,00 %
11.04.2023 09:40 9,5 C 11,1 C 6,1 C 81 % 1013,1 hPa 0,0 l/m 2 min 0 min 442 W/m 22,5 km/h (4 Bft) 97,87 %
11.04.2023 09:42 9,6 C 11,7 C 6,7 C 81 % 1013,1 hPa 0,0 l/m 2 min 0 min 471 W/m 29,0 km/h (5 Bft) 97,87 %
11.04.2023 09:44 9,7 C 11,1 C 6,7 C 81 % 1013,1 hPa 0,0 l/m 2 min 0 min 492 W/m 22,5 km/h (4 Bft) 100,00 %
11.04.2023 09:46 9,7 C 11,1 C 6,7 C 81 % 1013,2 hPa 0,0 l/m 2 min 0 min 484 W/m 16,1 km/h (3 Bft) 95,83 %
11.04.2023 09:48 9,8 C 11,1 C 6,7 C 81 % 1013,2 hPa 0,0 l/m 2 min 0 min 488 W/m 16,1 km/h (3 Bft) 91,30 %
11.04.2023 09:50 9,8 C 11,7 C 7,2 C 80 % 1013,2 hPa 0,0 l/m 2 min 0 min 483 W/m 22,5 km/h (4 Bft) 93,62 %
11.04.2023 09:52 9,9 C 12,2 C 7,2 C 80 % 1013,1 hPa 0,0 l/m 2 min 0 min 494 W/m 16,1 km/h (3 Bft) 95,74 %
11.04.2023 09:54 10,0 C 11,7 C 7,2 C 79 % 1013,1 hPa 0,0 l/m 2 min 0 min 577 W/m 19,3 km/h (3 Bft) 93,62 %
11.04.2023 09:56 10,1 C 12,2 C 7,2 C 79 % 1013,0 hPa 0,0 l/m 2 min 0 min 600 W/m 19,3 km/h (3 Bft) 93,62 %
11.04.2023 09:58 10,2 C 11,7 C 7,2 C 79 % 1013,1 hPa 0,0 l/m 2 min 0 min 517 W/m 16,1 km/h (3 Bft) 95,74 %
11.04.2023 10:00 10,3 C 11,7 C 7,2 C 78 % 1013,2 hPa 0,0 l/m 0 min 0 min 163 W/m 16,1 km/h (3 Bft) 93,62 %
11.04.2023 10:02 10,3 C 13,3 C 7,2 C 78 % 1013,2 hPa 0,0 l/m 2 min 0 min 341 W/m 12,9 km/h (3 Bft) 95,74 %
11.04.2023 10:04 10,4 C 13,9 C 7,2 C 78 % 1013,2 hPa 0,0 l/m 2 min 0 min 439 W/m 19,3 km/h (3 Bft) 95,74 %
11.04.2023 10:06 10,4 C 15,0 C 7,8 C 78 % 1013,2 hPa 0,0 l/m 2 min 0 min 439 W/m 16,1 km/h (3 Bft) 95,65 %
11.04.2023 10:08 10,6 C 14,4 C 7,8 C 78 % 1013,2 hPa 0,0 l/m 2 min 0 min 439 W/m 16,1 km/h (3 Bft) 95,74 %
11.04.2023 10:10 10,6 C 13,9 C 7,8 C 77 % 1013,3 hPa 0,0 l/m 2 min 0 min 439 W/m 16,1 km/h (3 Bft) 95,74 %
11.04.2023 10:12 10,6 C 12,8 C 7,8 C 77 % 1013,2 hPa 0,0 l/m 2 min 0 min 439 W/m 12,9 km/h (3 Bft) 95,74 %
11.04.2023 10:14 10,6 C 12,2 C 7,2 C 77 % 1013,3 hPa 0,0 l/m 2 min 0 min 421 W/m 19,3 km/h (3 Bft) 95,74 %
11.04.2023 10:16 10,6 C 12,8 C 7,8 C 77 % 1013,4 hPa 0,0 l/m 0 min 0 min 179 W/m 12,9 km/h (3 Bft) 95,74 %
11.04.2023 10:18 10,6 C 11,7 C 7,2 C 76 % 1013,4 hPa 0,0 l/m 0 min 0 min 205 W/m 16,1 km/h (3 Bft) 93,62 %
11.04.2023 10:20 10,6 C 12,2 C 7,8 C 76 % 1013,4 hPa 0,0 l/m 0 min 0 min 185 W/m 19,3 km/h (3 Bft) 95,65 %
11.04.2023 10:22 10,6 C 13,3 C 8,3 C 76 % 1013,5 hPa 0,0 l/m 2 min 0 min 395 W/m 19,3 km/h (3 Bft) 93,62 %
11.04.2023 10:24 10,6 C 13,3 C 8,9 C 75 % 1013,4 hPa 0,0 l/m 2 min 0 min 410 W/m 19,3 km/h (3 Bft) 95,74 %
11.04.2023 10:26 10,7 C 13,3 C 8,9 C 75 % 1013,4 hPa 0,0 l/m 0 min 0 min 219 W/m 19,3 km/h (3 Bft) 93,62 %
11.04.2023 10:28 10,7 C 12,2 C 8,3 C 74 % 1013,5 hPa 0,0 l/m 0 min 0 min 188 W/m 25,7 km/h (4 Bft) 93,62 %
11.04.2023 10:30 10,7 C 11,7 C 7,8 C 74 % 1013,5 hPa 0,0 l/m 0 min 0 min 175 W/m 22,5 km/h (4 Bft) 95,74 %
11.04.2023 10:32 10,6 C 12,2 C 7,8 C 74 % 1013,6 hPa 0,0 l/m 0 min 0 min 176 W/m 22,5 km/h (4 Bft) 95,74 %
11.04.2023 10:34 10,6 C 13,3 C 8,3 C 75 % 1013,5 hPa 0,0 l/m 0 min 0 min 209 W/m 16,1 km/h (3 Bft) 95,65 %
11.04.2023 10:36 10,7 C 13,9 C 8,9 C 74 % 1013,4 hPa 0,0 l/m 2 min 0 min 318 W/m 19,3 km/h (3 Bft) 93,62 %
11.04.2023 10:38 10,8 C 15,0 C 8,9 C 74 % 1013,5 hPa 0,0 l/m 2 min 0 min 324 W/m 22,5 km/h (4 Bft) 95,74 %
11.04.2023 10:40 10,9 C 16,1 C 10,0 C 74 % 1013,3 hPa 0,0 l/m 2 min 0 min 356 W/m 22,5 km/h (4 Bft) 95,74 %
11.04.2023 10:42 11,0 C 16,1 C 10,0 C 73 % 1013,4 hPa 0,0 l/m 2 min 0 min 371 W/m 25,7 km/h (4 Bft) 95,74 %
11.04.2023 10:44 11,1 C 16,1 C 10,0 C 73 % 1013,5 hPa 0,0 l/m 2 min 0 min 304 W/m 16,1 km/h (3 Bft) 91,49 %
11.04.2023 10:46 11,2 C 15,0 C 10,0 C 73 % 1013,5 hPa 0,0 l/m 0 min 0 min 230 W/m 16,1 km/h (3 Bft) 91,49 %
11.04.2023 10:48 11,3 C 14,4 C 9,4 C 73 % 1013,5 hPa 0,0 l/m 0 min 0 min 280 W/m 16,1 km/h (3 Bft) 95,65 %
11.04.2023 10:50 11,4 C 12,8 C 8,9 C 72 % 1013,6 hPa 0,0 l/m 0 min 0 min 253 W/m 12,9 km/h (3 Bft) 95,74 %
11.04.2023 10:52 11,3 C 12,2 C 8,3 C 72 % 1013,6 hPa 0,0 l/m 0 min 0 min 217 W/m 32,2 km/h (5 Bft) 93,62 %
11.04.2023 10:54 11,2 C 12,8 C 8,3 C 70 % 1013,5 hPa 0,0 l/m 0 min 0 min 226 W/m 29,0 km/h (5 Bft) 95,74 %
11.04.2023 10:56 11,2 C 14,4 C 8,9 C 71 % 1013,6 hPa 0,0 l/m 2 min 0 min 490 W/m 22,5 km/h (4 Bft) 95,74 %
11.04.2023 10:58 11,2 C 14,4 C 8,9 C 71 % 1013,6 hPa 0,0 l/m 2 min 0 min 547 W/m 22,5 km/h (4 Bft) 97,87 %
11.04.2023 11:00 11,3 C 13,3 C 8,9 C 71 % 1013,6 hPa 0,0 l/m 0 min 0 min 289 W/m 25,7 km/h (4 Bft) 95,65 %
11.04.2023 11:02 11,3 C 13,9 C 8,9 C 71 % 1013,5 hPa 0,0 l/m 0 min 0 min 237 W/m 19,3 km/h (3 Bft) 93,62 %
11.04.2023 11:04 11,4 C 14,4 C 8,9 C 71 % 1013,5 hPa 0,0 l/m 0 min 0 min 237 W/m 22,5 km/h (4 Bft) 100,00 %
11.04.2023 11:06 11,5 C 14,4 C 9,4 C 71 % 1013,6 hPa 0,0 l/m 2 min 0 min 654 W/m 19,3 km/h (3 Bft) 93,62 %
11.04.2023 11:08 11,6 C 14,4 C 9,4 C 71 % 1013,6 hPa 0,0 l/m 2 min 0 min 695 W/m 22,5 km/h (4 Bft) 95,83 %
11.04.2023 11:10 11,7 C 13,9 C 9,4 C 70 % 1013,7 hPa 0,0 l/m 2 min 0 min 708 W/m 19,3 km/h (3 Bft) 95,74 %
11.04.2023 11:12 11,8 C 13,9 C 9,4 C 69 % 1013,7 hPa 0,0 l/m 2 min 0 min 769 W/m 25,7 km/h (4 Bft) 97,87 %
11.04.2023 11:14 11,8 C 13,3 C 9,4 C 69 % 1013,7 hPa 0,0 l/m 2 min 0 min 754 W/m 19,3 km/h (3 Bft) 97,87 %
11.04.2023 11:16 11,9 C 13,9 C 9,4 C 70 % 1013,6 hPa 0,0 l/m 2 min 0 min 762 W/m 22,5 km/h (4 Bft) 97,83 %
11.04.2023 11:18 12,1 C 15,0 C 10,0 C 70 % 1013,7 hPa 0,0 l/m 2 min 0 min 789 W/m 19,3 km/h (3 Bft) 97,87 %
11.04.2023 11:20 12,1 C 16,1 C 10,6 C 68 % 1013,7 hPa 0,0 l/m 2 min 0 min 748 W/m 35,4 km/h (5 Bft) 97,87 %
11.04.2023 11:22 12,2 C 16,1 C 10,6 C 68 % 1013,7 hPa 0,0 l/m 2 min 0 min 715 W/m 38,6 km/h (5 Bft) 95,74 %
11.04.2023 11:24 12,4 C 16,1 C 11,1 C 68 % 1013,6 hPa 0,0 l/m 2 min 0 min 716 W/m 19,3 km/h (3 Bft) 95,74 %
11.04.2023 11:26 12,5 C 16,1 C 11,1 C 68 % 1013,6 hPa 0,0 l/m 2 min 0 min 790 W/m 25,7 km/h (4 Bft) 100,00 %
11.04.2023 11:28 12,6 C 16,1 C 11,1 C 67 % 1013,7 hPa 0,0 l/m 2 min 0 min 803 W/m 22,5 km/h (4 Bft) 97,83 %
11.04.2023 11:30 12,6 C 15,0 C 10,6 C 66 % 1013,7 hPa 0,0 l/m 2 min 0 min 764 W/m 22,5 km/h (4 Bft) 95,74 %
11.04.2023 11:32 12,3 C 13,3 C 9,4 C 64 % 1013,7 hPa 0,0 l/m 0 min 0 min 228 W/m 25,7 km/h (4 Bft) 100,00 %
11.04.2023 11:34 12,2 C 13,9 C 10,0 C 65 % 1013,6 hPa 0,0 l/m 0 min 0 min 263 W/m 22,5 km/h (4 Bft) 100,00 %
11.04.2023 11:36 12,1 C 15,0 C 10,6 C 66 % 1013,8 hPa 0,0 l/m 0 min 0 min 311 W/m 25,7 km/h (4 Bft) 100,00 %
11.04.2023 11:38 12,1 C 14,4 C 10,6 C 66 % 1013,7 hPa 0,0 l/m 0 min 0 min 262 W/m 25,7 km/h (4 Bft) 100,00 %
11.04.2023 11:40 12,1 C 14,4 C 11,1 C 64 % 1013,8 hPa 0,0 l/m 2 min 0 min 763 W/m 41,8 km/h (6 Bft) 100,00 %
11.04.2023 11:42 12,1 C 15,0 C 12,2 C 64 % 1013,7 hPa 0,0 l/m 2 min 0 min 845 W/m 25,7 km/h (4 Bft) 100,00 %
11.04.2023 11:44 12,3 C 16,1 C 12,8 C 65 % 1013,8 hPa 0,0 l/m 2 min 0 min 907 W/m 32,2 km/h (5 Bft) 100,00 %
11.04.2023 11:46 12,5 C 16,7 C 13,3 C 65 % 1013,9 hPa 0,0 l/m 2 min 0 min 916 W/m 25,7 km/h (4 Bft) 97,87 %
11.04.2023 11:48 12,6 C 15,0 C 11,7 C 65 % 1013,9 hPa 0,0 l/m 2 min 0 min 590 W/m 19,3 km/h (3 Bft) 100,00 %
11.04.2023 11:50 12,5 C 15,0 C 11,7 C 66 % 1014,0 hPa 0,0 l/m 0 min 0 min 265 W/m 25,7 km/h (4 Bft) 97,87 %
11.04.2023 11:52 12,4 C 13,3 C 10,6 C 65 % 1014,0 hPa 0,0 l/m 0 min 0 min 245 W/m 19,3 km/h (3 Bft) 100,00 %
11.04.2023 11:54 12,3 C 13,9 C 10,0 C 66 % 1014,0 hPa 0,0 l/m 0 min 0 min 229 W/m 19,3 km/h (3 Bft) 97,87 %
11.04.2023 11:56 12,2 C 15,6 C 10,6 C 67 % 1014,0 hPa 0,0 l/m 2 min 0 min 387 W/m 19,3 km/h (3 Bft) 100,00 %
11.04.2023 11:58 12,2 C 15,0 C 11,1 C 65 % 1014,1 hPa 0,0 l/m 2 min 0 min 916 W/m 32,2 km/h (5 Bft) 100,00 %
11.04.2023 12:00 12,1 C 13,3 C 9,4 C 65 % 1014,1 hPa 0,0 l/m 2 min 0 min 517 W/m 35,4 km/h (5 Bft) 100,00 %
11.04.2023 12:02 11,9 C 13,9 C 10,0 C 63 % 1014,0 hPa 0,0 l/m 0 min 0 min 252 W/m 16,1 km/h (3 Bft) 100,00 %
11.04.2023 12:04 11,8 C 13,3 C 10,0 C 64 % 1014,0 hPa 0,0 l/m 0 min 0 min 242 W/m 29,0 km/h (5 Bft) 97,87 %
11.04.2023 12:07 11,7 C 15,6 C 10,6 C 64 % 1014,1 hPa 0,0 l/m 3 min 0 min 506 W/m 32,2 km/h (5 Bft) 97,22 %
11.04.2023 12:08 11,7 C 16,1 C 11,1 C 64 % 1014,1 hPa 0,0 l/m 1 min 0 min 788 W/m 19,3 km/h (3 Bft) 100,00 %
11.04.2023 12:12 12,1 C 17,8 C 13,3 C 63 % 1014,1 hPa 0,0 l/m 4 min 0 min 800 W/m 22,5 km/h (4 Bft) 100,00 %
11.04.2023 12:14 12,2 C 16,1 C 12,2 C 63 % 1014,1 hPa 0,0 l/m 2 min 0 min 802 W/m 29,0 km/h (5 Bft) 97,87 %
11.04.2023 12:16 12,2 C 16,1 C 12,2 C 62 % 1014,2 hPa 0,0 l/m 2 min 0 min 827 W/m 41,8 km/h (6 Bft) 97,83 %
11.04.2023 12:18 12,2 C 16,7 C 12,8 C 63 % 1014,3 hPa 0,0 l/m 2 min 0 min 856 W/m 19,3 km/h (3 Bft) 100,00 %
11.04.2023 12:20 12,4 C 16,7 C 12,8 C 63 % 1014,0 hPa 0,0 l/m 2 min 0 min 856 W/m 22,5 km/h (4 Bft) 97,87 %
11.04.2023 12:22 12,5 C 17,2 C 13,3 C 63 % 1014,2 hPa 0,0 l/m 2 min 0 min 856 W/m 29,0 km/h (5 Bft) 93,62 %
11.04.2023 12:24 12,5 C 15,6 C 12,2 C 61 % 1014,2 hPa 0,0 l/m 2 min 0 min 856 W/m 22,5 km/h (4 Bft) 97,87 %
11.04.2023 12:26 12,4 C 16,7 C 12,8 C 61 % 1014,1 hPa 0,0 l/m 2 min 0 min 886 W/m 19,3 km/h (3 Bft) 97,87 %
11.04.2023 12:28 12,6 C 18,3 C 13,9 C 61 % 1014,1 hPa 0,0 l/m 2 min 0 min 923 W/m 19,3 km/h (3 Bft) 97,87 %
11.04.2023 12:30 12,7 C 16,7 C 13,3 C 61 % 1014,3 hPa 0,0 l/m 2 min 0 min 862 W/m 19,3 km/h (3 Bft) 95,65 %
11.04.2023 12:32 12,7 C 16,1 C 12,8 C 62 % 1014,2 hPa 0,0 l/m 0 min 0 min 274 W/m 16,1 km/h (3 Bft) 95,74 %
11.04.2023 12:34 12,8 C 16,1 C 12,2 C 61 % 1014,2 hPa 0,0 l/m 0 min 0 min 281 W/m 16,1 km/h (3 Bft) 95,74 %
11.04.2023 12:36 12,9 C 18,3 C 14,4 C 63 % 1014,2 hPa 0,0 l/m 2 min 0 min 676 W/m 12,9 km/h (3 Bft) 95,74 %
11.04.2023 12:38 13,1 C 19,4 C 15,0 C 62 % 1014,2 hPa 0,0 l/m 2 min 0 min 958 W/m 32,2 km/h (5 Bft) 93,62 %
11.04.2023 12:40 13,3 C 20,6 C 16,1 C 61 % 1014,1 hPa 0,0 l/m 2 min 0 min 914 W/m 19,3 km/h (3 Bft) 93,62 %
11.04.2023 12:42 13,4 C 20,0 C 16,1 C 60 % 1014,1 hPa 0,0 l/m 2 min 0 min 908 W/m 25,7 km/h (4 Bft) 95,65 %
11.04.2023 12:44 13,4 C 17,8 C 14,4 C 60 % 1014,1 hPa 0,0 l/m 2 min 0 min 889 W/m 16,1 km/h (3 Bft) 95,74 %
11.04.2023 12:46 13,4 C 16,1 C 13,3 C 59 % 1014,2 hPa 0,0 l/m 2 min 0 min 354 W/m 22,5 km/h (4 Bft) 95,74 %
11.04.2023 12:48 13,2 C 13,9 C 11,7 C 59 % 1014,0 hPa 0,0 l/m 0 min 0 min 167 W/m 16,1 km/h (3 Bft) 95,74 %
11.04.2023 12:50 12,9 C 12,8 C 10,6 C 60 % 1014,1 hPa 0,0 l/m 0 min 0 min 145 W/m 16,1 km/h (3 Bft) 91,49 %
11.04.2023 12:52 12,8 C 13,9 C 10,6 C 61 % 1014,1 hPa 0,0 l/m 0 min 0 min 152 W/m 16,1 km/h (3 Bft) 97,87 %
11.04.2023 12:54 12,6 C 13,9 C 10,0 C 61 % 1014,1 hPa 0,0 l/m 0 min 0 min 187 W/m 19,3 km/h (3 Bft) 95,74 %
11.04.2023 12:56 12,4 C 13,9 C 10,0 C 61 % 1014,1 hPa 0,0 l/m 0 min 0 min 235 W/m 22,5 km/h (4 Bft) 97,83 %
11.04.2023 12:58 12,3 C 12,8 C 9,4 C 61 % 1014,1 hPa 0,0 l/m 0 min 0 min 220 W/m 19,3 km/h (3 Bft) 95,74 %
11.04.2023 13:00 12,2 C 12,2 C 8,9 C 62 % 1014,0 hPa 0,0 l/m 0 min 0 min 179 W/m 19,3 km/h (3 Bft) 97,87 %
11.04.2023 13:02 12,1 C 12,2 C 8,9 C 61 % 1014,1 hPa 0,0 l/m 0 min 0 min 180 W/m 19,3 km/h (3 Bft) 97,87 %
11.04.2023 13:04 12,0 C 12,8 C 8,9 C 61 % 1014,0 hPa 0,0 l/m 0 min 0 min 152 W/m 29,0 km/h (5 Bft) 100,00 %
11.04.2023 13:06 12,1 C 13,9 C 8,9 C 60 % 1013,9 hPa 0,0 l/m 2 min 0 min 656 W/m 19,3 km/h (3 Bft) 100,00 %
11.04.2023 13:08 12,2 C 14,4 C 8,9 C 61 % 1013,9 hPa 0,0 l/m 0 min 0 min 353 W/m 19,3 km/h (3 Bft) 100,00 %
11.04.2023 13:10 12,4 C 15,0 C 9,4 C 61 % 1013,9 hPa 0,0 l/m 2 min 0 min 889 W/m 29,0 km/h (5 Bft) 100,00 %
11.04.2023 13:12 12,6 C 15,0 C 10,0 C 61 % 1013,9 hPa 0,0 l/m 2 min 0 min 951 W/m 29,0 km/h (5 Bft) 95,74 %
11.04.2023 13:14 12,8 C 15,0 C 10,6 C 60 % 1014,1 hPa 0,0 l/m 2 min 0 min 891 W/m 19,3 km/h (3 Bft) 100,00 %
11.04.2023 13:16 13,1 C 14,4 C 10,6 C 60 % 1014,1 hPa 0,0 l/m 2 min 0 min 802 W/m 22,5 km/h (4 Bft) 97,87 %
11.04.2023 13:18 13,0 C 13,9 C 10,0 C 59 % 1014,0 hPa 0,0 l/m 0 min 0 min 223 W/m 25,7 km/h (4 Bft) 100,00 %
11.04.2023 13:20 12,9 C 15,6 C 10,0 C 58 % 1014,1 hPa 0,0 l/m 0 min 0 min 234 W/m 22,5 km/h (4 Bft) 100,00 %
11.04.2023 13:22 13,1 C 17,2 C 10,6 C 59 % 1014,1 hPa 0,0 l/m 2 min 0 min 644 W/m 16,1 km/h (3 Bft) 97,83 %
11.04.2023 13:24 13,2 C 17,8 C 11,1 C 58 % 1014,1 hPa 0,0 l/m 2 min 0 min 976 W/m 32,2 km/h (5 Bft) 100,00 %
11.04.2023 13:26 13,4 C 17,8 C 11,1 C 61 % 1014,1 hPa 0,0 l/m 2 min 0 min 746 W/m 12,9 km/h (3 Bft) 100,00 %
11.04.2023 13:28 13,7 C 18,3 C 11,1 C 60 % 1014,0 hPa 0,0 l/m 2 min 0 min 446 W/m 16,1 km/h (3 Bft) 97,87 %
11.04.2023 13:30 13,8 C 19,4 C 11,1 C 59 % 1014,0 hPa 0,0 l/m 2 min 0 min 779 W/m 19,3 km/h (3 Bft) 100,00 %
11.04.2023 13:32 13,9 C 19,4 C 11,1 C 54 % 1014,1 hPa 0,0 l/m 2 min 0 min 935 W/m 22,5 km/h (4 Bft) 100,00 %
11.04.2023 13:34 14,0 C 19,4 C 11,1 C 55 % 1014,2 hPa 0,0 l/m 2 min 0 min 947 W/m 19,3 km/h (3 Bft) 100,00 %
11.04.2023 13:36 14,1 C 19,4 C 11,1 C 55 % 1014,1 hPa 0,0 l/m 2 min 0 min 961 W/m 19,3 km/h (3 Bft) 100,00 %
11.04.2023 13:38 14,3 C 20,0 C 11,7 C 56 % 1014,1 hPa 0,0 l/m 2 min 0 min 959 W/m 25,7 km/h (4 Bft) 100,00 %
11.04.2023 13:40 14,3 C 19,4 C 11,7 C 56 % 1014,2 hPa 0,0 l/m 2 min 0 min 936 W/m 22,5 km/h (4 Bft) 100,00 %
11.04.2023 13:42 14,2 C 20,0 C 11,7 C 56 % 1014,1 hPa 0,0 l/m 2 min 0 min 911 W/m 22,5 km/h (4 Bft) 100,00 %
11.04.2023 13:44 14,3 C 19,4 C 11,1 C 57 % 1014,1 hPa 0,0 l/m 2 min 0 min 923 W/m 22,5 km/h (4 Bft) 97,87 %
11.04.2023 13:46 14,3 C 20,0 C 11,7 C 57 % 1014,1 hPa 0,0 l/m 2 min 0 min 932 W/m 19,3 km/h (3 Bft) 100,00 %
11.04.2023 13:48 14,3 C 20,6 C 11,7 C 58 % 1014,1 hPa 0,0 l/m 2 min 0 min 922 W/m 35,4 km/h (5 Bft) 100,00 %
11.04.2023 13:50 14,4 C 20,0 C 11,1 C 56 % 1014,1 hPa 0,0 l/m 2 min 0 min 909 W/m 32,2 km/h (5 Bft) 100,00 %
11.04.2023 13:52 14,3 C 17,8 C 11,1 C 56 % 1014,0 hPa 0,0 l/m 2 min 0 min 940 W/m 25,7 km/h (4 Bft) 100,00 %
11.04.2023 13:54 14,3 C 17,8 C 11,1 C 54 % 1014,1 hPa 0,0 l/m 2 min 0 min 970 W/m 29,0 km/h (5 Bft) 100,00 %
11.04.2023 13:56 14,3 C 17,2 C 11,1 C 56 % 1014,0 hPa 0,0 l/m 2 min 0 min 395 W/m 19,3 km/h (3 Bft) 100,00 %
11.04.2023 13:58 14,2 C 17,2 C 10,6 C 55 % 1014,1 hPa 0,0 l/m 0 min 0 min 311 W/m 19,3 km/h (3 Bft) 100,00 %
11.04.2023 14:00 14,3 C 18,9 C 11,1 C 54 % 1014,0 hPa 0,0 l/m 2 min 0 min 789 W/m 25,7 km/h (4 Bft) 100,00 %
11.04.2023 14:02 14,3 C 20,6 C 11,1 C 55 % 1014,0 hPa 0,0 l/m 2 min 0 min 945 W/m 19,3 km/h (3 Bft) 100,00 %
11.04.2023 14:04 14,5 C 20,6 C 11,1 C 55 % 1013,9 hPa 0,0 l/m 2 min 0 min 932 W/m 29,0 km/h (5 Bft) 100,00 %
11.04.2023 14:06 14,6 C 20,6 C 11,1 C 53 % 1014,0 hPa 0,0 l/m 2 min 0 min 944 W/m 25,7 km/h (4 Bft) 98,31 %
11.04.2023 14:08 14,6 C 19,4 C 11,1 C 53 % 1013,9 hPa 0,0 l/m 2 min 0 min 941 W/m 16,1 km/h (3 Bft) 100,00 %
11.04.2023 14:10 14,5 C 17,8 C 10,6 C 52 % 1014,0 hPa 0,0 l/m 2 min 0 min 826 W/m 25,7 km/h (4 Bft) 100,00 %
11.04.2023 14:12 14,4 C 18,9 C 10,6 C 54 % 1014,0 hPa 0,0 l/m 2 min 0 min 575 W/m 16,1 km/h (3 Bft) 100,00 %
11.04.2023 14:14 14,3 C 17,8 C 10,6 C 54 % 1013,9 hPa 0,0 l/m 2 min 0 min 916 W/m 22,5 km/h (4 Bft) 100,00 %
11.04.2023 14:16 14,3 C 18,9 C 10,6 C 53 % 1013,9 hPa 0,0 l/m 2 min 0 min 892 W/m 32,2 km/h (5 Bft) 100,00 %
11.04.2023 14:18 14,3 C 19,4 C 10,6 C 55 % 1014,0 hPa 0,0 l/m 2 min 0 min 876 W/m 25,7 km/h (4 Bft) 100,00 %
11.04.2023 14:20 14,3 C 19,4 C 10,6 C 54 % 1014,0 hPa 0,0 l/m 2 min 0 min 870 W/m 22,5 km/h (4 Bft) 100,00 %
11.04.2023 14:22 14,3 C 17,2 C 10,6 C 53 % 1014,0 hPa 0,0 l/m 2 min 0 min 870 W/m 32,2 km/h (5 Bft) 100,00 %
11.04.2023 14:24 14,3 C 16,7 C 10,6 C 55 % 1014,0 hPa 0,0 l/m 0 min 0 min 351 W/m 16,1 km/h (3 Bft) 100,00 %
11.04.2023 14:26 14,3 C 15,6 C 10,6 C 55 % 1014,0 hPa 0,0 l/m 0 min 0 min 196 W/m 19,3 km/h (3 Bft) 100,00 %
11.04.2023 14:28 14,2 C 15,0 C 10,0 C 55 % 1014,1 hPa 0,0 l/m 0 min 0 min 212 W/m 19,3 km/h (3 Bft) 100,00 %
11.04.2023 14:30 14,1 C 17,2 C 10,0 C 55 % 1014,0 hPa 0,0 l/m 2 min 0 min 430 W/m 22,5 km/h (4 Bft) 100,00 %
11.04.2023 14:32 14,1 C 17,8 C 10,0 C 55 % 1014,0 hPa 0,0 l/m 2 min 0 min 882 W/m 19,3 km/h (3 Bft) 97,83 %
11.04.2023 14:34 14,2 C 17,2 C 10,6 C 55 % 1014,0 hPa 0,0 l/m 2 min 0 min 884 W/m 19,3 km/h (3 Bft) 95,74 %
11.04.2023 14:36 14,2 C 16,1 C 10,0 C 55 % 1014,0 hPa 0,0 l/m 0 min 0 min 341 W/m 16,1 km/h (3 Bft) 95,74 %
11.04.2023 14:38 14,1 C 17,2 C 10,0 C 55 % 1014,0 hPa 0,0 l/m 0 min 0 min 229 W/m 19,3 km/h (3 Bft) 97,87 %
11.04.2023 14:40 14,2 C 16,1 C 10,6 C 55 % 1014,1 hPa 0,0 l/m 0 min 0 min 204 W/m 16,1 km/h (3 Bft) 97,87 %
11.04.2023 14:42 14,2 C 17,2 C 10,0 C 55 % 1014,0 hPa 0,0 l/m 0 min 0 min 121 W/m 19,3 km/h (3 Bft) 97,87 %
11.04.2023 14:44 14,1 C 15,0 C 10,0 C 55 % 1014,0 hPa 0,0 l/m 0 min 0 min 124 W/m 22,5 km/h (4 Bft) 97,87 %
11.04.2023 14:46 13,9 C 13,9 C 9,4 C 55 % 1014,1 hPa 0,0 l/m 0 min 0 min 134 W/m 19,3 km/h (3 Bft) 95,65 %
11.04.2023 14:48 13,6 C 13,3 C 9,4 C 55 % 1014,0 hPa 0,0 l/m 0 min 0 min 131 W/m 19,3 km/h (3 Bft) 95,74 %
11.04.2023 14:50 13,4 C 12,8 C 9,4 C 55 % 1014,0 hPa 0,0 l/m 0 min 0 min 125 W/m 9,7 km/h (2 Bft) 95,74 %
11.04.2023 14:52 13,2 C 12,8 C 9,4 C 56 % 1014,1 hPa 0,0 l/m 0 min 0 min 139 W/m 16,1 km/h (3 Bft) 95,74 %
11.04.2023 14:54 13,2 C 13,3 C 9,4 C 56 % 1014,1 hPa 0,0 l/m 0 min 0 min 191 W/m 25,7 km/h (4 Bft) 95,74 %
11.04.2023 14:56 13,1 C 13,9 C 9,4 C 57 % 1014,1 hPa 0,0 l/m 0 min 0 min 253 W/m 19,3 km/h (3 Bft) 93,62 %
11.04.2023 14:58 13,2 C 14,4 C 9,4 C 56 % 1014,1 hPa 0,0 l/m 0 min 0 min 247 W/m 19,3 km/h (3 Bft) 95,65 %
11.04.2023 15:00 13,2 C 13,9 C 9,4 C 57 % 1014,0 hPa 0,0 l/m 0 min 0 min 212 W/m 16,1 km/h (3 Bft) 93,62 %
11.04.2023 15:02 13,2 C 13,9 C 9,4 C 55 % 1014,1 hPa 0,0 l/m 0 min 0 min 175 W/m 19,3 km/h (3 Bft) 95,74 %
11.04.2023 15:04 13,2 C 13,9 C 9,4 C 55 % 1014,1 hPa 0,0 l/m 0 min 0 min 192 W/m 19,3 km/h (3 Bft) 95,83 %
11.04.2023 15:06 13,3 C 15,6 C 9,4 C 55 % 1014,1 hPa 0,0 l/m 0 min 0 min 261 W/m 19,3 km/h (3 Bft) 95,74 %
11.04.2023 15:08 13,5 C 16,1 C 10,0 C 56 % 1014,0 hPa 0,0 l/m 2 min 0 min 902 W/m 19,3 km/h (3 Bft) 95,65 %
11.04.2023 15:10 13,7 C 17,2 C 10,0 C 56 % 1014,0 hPa 0,0 l/m 2 min 0 min 860 W/m 19,3 km/h (3 Bft) 97,87 %
11.04.2023 15:12 13,9 C 17,8 C 10,6 C 56 % 1014,0 hPa 0,0 l/m 2 min 0 min 808 W/m 25,7 km/h (4 Bft) 97,87 %
11.04.2023 15:14 14,1 C 16,7 C 10,0 C 55 % 1014,1 hPa 0,0 l/m 2 min 0 min 761 W/m 16,1 km/h (3 Bft) 93,62 %
11.04.2023 15:16 14,1 C 15,0 C 10,0 C 55 % 1014,0 hPa 0,0 l/m 0 min 0 min 280 W/m 12,9 km/h (3 Bft) 97,87 %
11.04.2023 15:18 14,1 C 16,1 C 10,0 C 54 % 1014,0 hPa 0,0 l/m 0 min 0 min 196 W/m 19,3 km/h (3 Bft) 97,87 %
11.04.2023 15:20 14,1 C 15,6 C 10,0 C 55 % 1014,0 hPa 0,0 l/m 2 min 0 min 750 W/m 6,4 km/h (2 Bft) 93,62 %
11.04.2023 15:22 14,1 C 16,7 C 10,0 C 53 % 1014,0 hPa 0,0 l/m 2 min 0 min 371 W/m 22,5 km/h (4 Bft) 97,87 %
11.04.2023 15:24 14,3 C 17,2 C 10,6 C 53 % 1014,0 hPa 0,0 l/m 2 min 0 min 812 W/m 22,5 km/h (4 Bft) 97,87 %
11.04.2023 15:26 14,3 C 16,7 C 10,6 C 52 % 1013,9 hPa 0,0 l/m 2 min 0 min 700 W/m 19,3 km/h (3 Bft) 97,87 %
11.04.2023 15:28 14,3 C 15,0 C 10,0 C 52 % 1014,0 hPa 0,0 l/m 0 min 0 min 202 W/m 25,7 km/h (4 Bft) 95,65 %
11.04.2023 15:30 14,3 C 15,0 C 10,0 C 53 % 1014,0 hPa 0,0 l/m 0 min 0 min 204 W/m 19,3 km/h (3 Bft) 95,74 %
11.04.2023 15:32 14,2 C 15,0 C 10,0 C 52 % 1014,1 hPa 0,0 l/m 0 min 0 min 193 W/m 25,7 km/h (4 Bft) 97,87 %
11.04.2023 15:34 14,1 C 16,1 C 10,0 C 52 % 1014,0 hPa 0,0 l/m 2 min 0 min 659 W/m 19,3 km/h (3 Bft) 97,87 %
11.04.2023 15:36 14,2 C 17,8 C 10,0 C 52 % 1014,0 hPa 0,0 l/m 2 min 0 min 783 W/m 19,3 km/h (3 Bft) 97,87 %
11.04.2023 15:38 14,3 C 18,3 C 10,6 C 52 % 1013,9 hPa 0,0 l/m 2 min 0 min 769 W/m 16,1 km/h (3 Bft) 97,87 %
11.04.2023 15:40 14,6 C 18,3 C 10,6 C 51 % 1013,9 hPa 0,0 l/m 2 min 0 min 806 W/m 12,9 km/h (3 Bft) 95,74 %
11.04.2023 15:42 14,7 C 17,8 C 10,6 C 50 % 1014,0 hPa 0,0 l/m 2 min 0 min 808 W/m 25,7 km/h (4 Bft) 95,74 %
11.04.2023 15:44 14,7 C 16,1 C 10,6 C 50 % 1014,0 hPa 0,0 l/m 2 min 0 min 805 W/m 22,5 km/h (4 Bft) 93,62 %
11.04.2023 15:46 14,6 C 15,0 C 10,6 C 50 % 1014,0 hPa 0,0 l/m 2 min 0 min 313 W/m 16,1 km/h (3 Bft) 97,87 %
11.04.2023 15:48 14,3 C 14,4 C 10,0 C 50 % 1014,0 hPa 0,0 l/m 0 min 0 min 152 W/m 19,3 km/h (3 Bft) 97,83 %
11.04.2023 15:50 14,3 C 13,9 C 9,4 C 51 % 1014,0 hPa 0,0 l/m 0 min 0 min 128 W/m 16,1 km/h (3 Bft) 97,87 %
11.04.2023 15:52 14,0 C 13,9 C 9,4 C 51 % 1014,0 hPa 0,0 l/m 0 min 0 min 149 W/m 25,7 km/h (4 Bft) 97,87 %
11.04.2023 15:54 13,9 C 13,9 C 9,4 C 52 % 1014,0 hPa 0,0 l/m 0 min 0 min 220 W/m 12,9 km/h (3 Bft) 97,87 %
11.04.2023 15:56 13,8 C 14,4 C 10,0 C 52 % 1013,9 hPa 0,0 l/m 0 min 0 min 242 W/m 12,9 km/h (3 Bft) 97,87 %
11.04.2023 15:58 13,9 C 14,4 C 10,0 C 53 % 1013,9 hPa 0,0 l/m 0 min 0 min 209 W/m 9,7 km/h (2 Bft) 97,87 %
11.04.2023 16:00 13,9 C 15,6 C 10,0 C 52 % 1014,0 hPa 0,0 l/m 0 min 0 min 244 W/m 22,5 km/h (4 Bft) 97,87 %
11.04.2023 16:02 14,0 C 16,1 C 10,0 C 52 % 1013,8 hPa 0,0 l/m 2 min 0 min 801 W/m 19,3 km/h (3 Bft) 97,87 %
11.04.2023 16:04 14,2 C 16,1 C 10,0 C 51 % 1013,7 hPa 0,0 l/m 2 min 0 min 777 W/m 19,3 km/h (3 Bft) 97,87 %
11.04.2023 16:06 14,3 C 17,2 C 10,6 C 52 % 1013,8 hPa 0,0 l/m 2 min 0 min 778 W/m 16,1 km/h (3 Bft) 97,83 %
11.04.2023 16:08 14,5 C 17,8 C 10,6 C 53 % 1013,8 hPa 0,0 l/m 2 min 0 min 766 W/m 22,5 km/h (4 Bft) 97,87 %
11.04.2023 16:10 14,7 C 17,8 C 11,1 C 51 % 1013,8 hPa 0,0 l/m 2 min 0 min 758 W/m 25,7 km/h (4 Bft) 97,87 %
11.04.2023 16:12 14,8 C 17,2 C 11,1 C 51 % 1013,7 hPa 0,0 l/m 2 min 0 min 750 W/m 19,3 km/h (3 Bft) 95,74 %
11.04.2023 16:14 14,9 C 17,8 C 11,1 C 51 % 1013,7 hPa 0,0 l/m 2 min 0 min 727 W/m 22,5 km/h (4 Bft) 97,87 %
11.04.2023 16:16 14,9 C 16,7 C 11,1 C 52 % 1013,7 hPa 0,0 l/m 2 min 0 min 514 W/m 19,3 km/h (3 Bft) 97,87 %
11.04.2023 16:18 14,9 C 15,6 C 10,6 C 51 % 1013,6 hPa 0,0 l/m 0 min 0 min 211 W/m 22,5 km/h (4 Bft) 97,87 %
11.04.2023 16:20 14,8 C 15,6 C 10,6 C 52 % 1013,8 hPa 0,0 l/m 0 min 0 min 281 W/m 29,0 km/h (5 Bft) 97,87 %
11.04.2023 16:22 14,7 C 16,7 C 10,6 C 52 % 1013,8 hPa 0,0 l/m 2 min 0 min 358 W/m 19,3 km/h (3 Bft) 97,87 %
11.04.2023 16:24 14,8 C 17,8 C 11,1 C 50 % 1013,8 hPa 0,0 l/m 2 min 0 min 762 W/m 16,1 km/h (3 Bft) 97,87 %
11.04.2023 16:26 14,9 C 17,8 C 11,1 C 49 % 1013,7 hPa 0,0 l/m 2 min 0 min 734 W/m 22,5 km/h (4 Bft) 97,83 %
11.04.2023 16:28 15,0 C 18,3 C 11,1 C 51 % 1013,7 hPa 0,0 l/m 2 min 0 min 709 W/m 12,9 km/h (3 Bft) 97,87 %
11.04.2023 16:30 15,2 C 17,8 C 11,1 C 52 % 1013,7 hPa 0,0 l/m 2 min 0 min 679 W/m 32,2 km/h (5 Bft) 97,87 %
11.04.2023 16:32 15,2 C 18,3 C 11,7 C 53 % 1013,7 hPa 0,0 l/m 2 min 0 min 672 W/m 22,5 km/h (4 Bft) 97,87 %
11.04.2023 16:34 15,2 C 17,2 C 11,1 C 53 % 1013,8 hPa 0,0 l/m 2 min 0 min 659 W/m 22,5 km/h (4 Bft) 97,87 %
11.04.2023 16:36 15,1 C 15,6 C 11,1 C 54 % 1013,9 hPa 0,0 l/m 2 min 0 min 331 W/m 12,9 km/h (3 Bft) 97,87 %
11.04.2023 16:38 14,8 C 14,4 C 10,6 C 54 % 1013,9 hPa 0,0 l/m 0 min 0 min 114 W/m 16,1 km/h (3 Bft) 97,87 %
11.04.2023 16:40 14,6 C 15,6 C 10,6 C 55 % 1013,8 hPa 0,0 l/m 0 min 0 min 136 W/m 19,3 km/h (3 Bft) 100,00 %
11.04.2023 16:42 14,6 C 17,2 C 11,1 C 56 % 1013,8 hPa 0,0 l/m 2 min 0 min 675 W/m 16,1 km/h (3 Bft) 100,00 %
11.04.2023 16:44 14,6 C 17,8 C 11,1 C 55 % 1013,7 hPa 0,0 l/m 2 min 0 min 669 W/m 22,5 km/h (4 Bft) 100,00 %
11.04.2023 16:46 14,7 C 18,3 C 11,1 C 56 % 1013,7 hPa 0,0 l/m 2 min 0 min 623 W/m 22,5 km/h (4 Bft) 100,00 %
11.04.2023 16:48 14,7 C 17,8 C 11,1 C 56 % 1013,7 hPa 0,0 l/m 2 min 0 min 586 W/m 19,3 km/h (3 Bft) 100,00 %
11.04.2023 16:50 14,8 C 17,8 C 11,1 C 58 % 1013,7 hPa 0,0 l/m 2 min 0 min 566 W/m 19,3 km/h (3 Bft) 100,00 %
11.04.2023 16:52 14,7 C 17,2 C 10,6 C 57 % 1013,8 hPa 0,0 l/m 2 min 0 min 555 W/m 25,7 km/h (4 Bft) 100,00 %
11.04.2023 16:54 14,6 C 17,2 C 10,6 C 57 % 1013,8 hPa 0,0 l/m 2 min 0 min 547 W/m 19,3 km/h (3 Bft) 97,87 %
11.04.2023 16:56 14,5 C 17,2 C 10,6 C 58 % 1013,7 hPa 0,0 l/m 2 min 0 min 541 W/m 19,3 km/h (3 Bft) 95,74 %
11.04.2023 16:58 14,3 C 16,7 C 10,6 C 57 % 1013,8 hPa 0,0 l/m 2 min 0 min 536 W/m 22,5 km/h (4 Bft) 97,87 %
11.04.2023 17:00 14,3 C 16,7 C 10,6 C 57 % 1013,9 hPa 0,0 l/m 2 min 0 min 533 W/m 25,7 km/h (4 Bft) 97,87 %
11.04.2023 17:02 14,2 C 16,7 C 10,6 C 58 % 1013,9 hPa 0,0 l/m 2 min 0 min 529 W/m 25,7 km/h (4 Bft) 97,87 %
11.04.2023 17:04 14,2 C 16,7 C 10,6 C 58 % 1013,9 hPa 0,0 l/m 2 min 0 min 524 W/m 22,5 km/h (4 Bft) 97,87 %
11.04.2023 17:06 14,2 C 16,7 C 10,6 C 58 % 1013,8 hPa 0,0 l/m 2 min 0 min 519 W/m 16,1 km/h (3 Bft) 97,83 %
11.04.2023 17:08 14,2 C 16,7 C 10,6 C 57 % 1013,8 hPa 0,0 l/m 2 min 0 min 516 W/m 38,6 km/h (5 Bft) 97,87 %
11.04.2023 17:10 14,1 C 16,7 C 10,0 C 58 % 1013,9 hPa 0,0 l/m 2 min 0 min 508 W/m 25,7 km/h (4 Bft) 97,87 %
11.04.2023 17:12 14,1 C 16,7 C 10,0 C 58 % 1013,7 hPa 0,0 l/m 2 min 0 min 499 W/m 16,1 km/h (3 Bft) 95,74 %
11.04.2023 17:14 14,1 C 16,7 C 10,0 C 58 % 1013,7 hPa 0,0 l/m 2 min 0 min 496 W/m 19,3 km/h (3 Bft) 97,87 %
11.04.2023 17:16 14,1 C 17,2 C 10,6 C 59 % 1013,6 hPa 0,0 l/m 2 min 0 min 494 W/m 16,1 km/h (3 Bft) 97,87 %
11.04.2023 17:18 14,3 C 17,2 C 10,6 C 59 % 1013,6 hPa 0,0 l/m 2 min 0 min 488 W/m 16,1 km/h (3 Bft) 93,62 %
11.04.2023 17:20 14,3 C 17,2 C 10,6 C 59 % 1013,6 hPa 0,0 l/m 2 min 0 min 457 W/m 16,1 km/h (3 Bft) 95,74 %
11.04.2023 17:22 14,3 C 17,2 C 11,1 C 59 % 1013,5 hPa 0,0 l/m 2 min 0 min 456 W/m 16,1 km/h (3 Bft) 95,74 %
11.04.2023 17:24 14,3 C 17,8 C 10,6 C 59 % 1013,5 hPa 0,0 l/m 2 min 0 min 469 W/m 16,1 km/h (3 Bft) 95,65 %
11.04.2023 17:26 14,3 C 18,3 C 10,6 C 59 % 1013,4 hPa 0,0 l/m 2 min 0 min 465 W/m 9,7 km/h (2 Bft) 95,74 %
11.04.2023 17:28 14,4 C 17,8 C 11,1 C 59 % 1013,5 hPa 0,0 l/m 2 min 0 min 450 W/m 12,9 km/h (3 Bft) 91,49 %
11.04.2023 17:30 14,4 C 17,2 C 10,6 C 57 % 1013,4 hPa 0,0 l/m 2 min 0 min 434 W/m 6,4 km/h (2 Bft) 93,62 %
11.04.2023 17:32 14,4 C 17,2 C 10,6 C 57 % 1013,4 hPa 0,0 l/m 2 min 0 min 409 W/m 9,7 km/h (2 Bft) 95,74 %
11.04.2023 17:34 14,5 C 17,8 C 11,1 C 58 % 1013,4 hPa 0,0 l/m 2 min 0 min 387 W/m 19,3 km/h (3 Bft) 95,74 %
11.04.2023 17:36 14,6 C 17,8 C 11,1 C 56 % 1013,4 hPa 0,0 l/m 2 min 0 min 365 W/m 16,1 km/h (3 Bft) 95,74 %
11.04.2023 17:38 14,7 C 17,8 C 11,1 C 56 % 1013,4 hPa 0,0 l/m 2 min 0 min 389 W/m 16,1 km/h (3 Bft) 95,65 %
11.04.2023 17:40 14,6 C 17,2 C 11,1 C 55 % 1013,4 hPa 0,0 l/m 2 min 0 min 404 W/m 22,5 km/h (4 Bft) 97,87 %
11.04.2023 17:42 14,6 C 17,2 C 11,1 C 55 % 1013,3 hPa 0,0 l/m 2 min 0 min 403 W/m 16,1 km/h (3 Bft) 97,87 %
11.04.2023 17:44 14,6 C 17,2 C 10,6 C 54 % 1013,3 hPa 0,0 l/m 2 min 0 min 403 W/m 29,0 km/h (5 Bft) 97,87 %
11.04.2023 17:46 14,5 C 16,7 C 10,6 C 55 % 1013,4 hPa 0,0 l/m 2 min 0 min 394 W/m 22,5 km/h (4 Bft) 97,87 %
11.04.2023 17:48 14,5 C 16,7 C 10,6 C 55 % 1013,3 hPa 0,0 l/m 2 min 0 min 387 W/m 19,3 km/h (3 Bft) 95,74 %
11.04.2023 17:50 14,4 C 16,7 C 10,6 C 55 % 1013,3 hPa 0,0 l/m 2 min 0 min 395 W/m 16,1 km/h (3 Bft) 95,74 %
11.04.2023 17:52 14,4 C 17,2 C 10,6 C 55 % 1013,3 hPa 0,0 l/m 2 min 0 min 390 W/m 19,3 km/h (3 Bft) 97,83 %
11.04.2023 17:54 14,4 C 17,2 C 10,6 C 54 % 1013,3 hPa 0,0 l/m 2 min 0 min 386 W/m 16,1 km/h (3 Bft) 97,87 %
11.04.2023 17:56 14,4 C 17,2 C 10,6 C 54 % 1013,3 hPa 0,0 l/m 2 min 0 min 375 W/m 16,1 km/h (3 Bft) 97,87 %
11.04.2023 17:58 14,4 C 17,2 C 10,6 C 54 % 1013,3 hPa 0,0 l/m 2 min 0 min 364 W/m 12,9 km/h (3 Bft) 97,44 %
11.04.2023 18:00 14,4 C 16,7 C 10,6 C 55 % 1013,3 hPa 0,0 l/m 2 min 0 min 344 W/m 12,9 km/h (3 Bft) 97,87 %
11.04.2023 18:02 14,4 C 16,7 C 10,6 C 54 % 1013,3 hPa 0,0 l/m 2 min 0 min 333 W/m 12,9 km/h (3 Bft) 97,87 %
11.04.2023 18:04 14,4 C 16,7 C 10,6 C 55 % 1013,3 hPa 0,0 l/m 2 min 0 min 324 W/m 16,1 km/h (3 Bft) 97,92 %
11.04.2023 18:07 14,4 C 16,7 C 10,6 C 55 % 1013,2 hPa 0,0 l/m 3 min 0 min 317 W/m 19,3 km/h (3 Bft) 98,57 %
11.04.2023 18:08 14,4 C 16,7 C 10,6 C 55 % 1013,2 hPa 0,0 l/m 1 min 0 min 308 W/m 16,1 km/h (3 Bft) 100,00 %
11.04.2023 18:12 14,3 C 16,7 C 10,6 C 56 % 1013,2 hPa 0,0 l/m 4 min 0 min 264 W/m 12,9 km/h (3 Bft) 98,25 %
11.04.2023 18:14 14,3 C 16,1 C 10,6 C 56 % 1013,2 hPa 0,0 l/m 2 min 0 min 172 W/m 12,9 km/h (3 Bft) 97,87 %
11.04.2023 18:16 14,3 C 16,1 C 10,6 C 56 % 1013,2 hPa 0,0 l/m 2 min 0 min 226 W/m 12,9 km/h (3 Bft) 100,00 %
11.04.2023 18:18 14,3 C 16,1 C 10,6 C 56 % 1013,1 hPa 0,0 l/m 2 min 0 min 247 W/m 12,9 km/h (3 Bft) 100,00 %
11.04.2023 18:20 14,3 C 16,7 C 10,6 C 57 % 1013,1 hPa 0,0 l/m 2 min 0 min 273 W/m 12,9 km/h (3 Bft) 97,87 %
11.04.2023 18:22 14,3 C 16,1 C 10,6 C 56 % 1013,1 hPa 0,0 l/m 2 min 0 min 265 W/m 25,7 km/h (4 Bft) 100,00 %
11.04.2023 18:24 14,3 C 15,6 C 10,6 C 56 % 1013,1 hPa 0,0 l/m 0 min 0 min 118 W/m 9,7 km/h (2 Bft) 97,87 %
11.04.2023 18:26 14,2 C 14,4 C 10,0 C 56 % 1013,1 hPa 0,0 l/m 0 min 0 min 102 W/m 16,1 km/h (3 Bft) 100,00 %
11.04.2023 18:28 14,1 C 13,9 C 10,0 C 57 % 1013,1 hPa 0,0 l/m 0 min 0 min 94 W/m 12,9 km/h (3 Bft) 100,00 %
11.04.2023 18:30 14,0 C 14,4 C 10,0 C 58 % 1013,0 hPa 0,0 l/m 2 min 0 min 177 W/m 6,4 km/h (2 Bft) 100,00 %
11.04.2023 18:32 13,9 C 15,0 C 10,0 C 58 % 1013,0 hPa 0,0 l/m 2 min 0 min 178 W/m 16,1 km/h (3 Bft) 97,87 %
11.04.2023 18:34 13,9 C 15,6 C 10,0 C 57 % 1013,0 hPa 0,0 l/m 2 min 0 min 206 W/m 19,3 km/h (3 Bft) 100,00 %
11.04.2023 18:36 13,8 C 15,6 C 10,0 C 58 % 1012,9 hPa 0,0 l/m 2 min 0 min 202 W/m 19,3 km/h (3 Bft) 100,00 %
11.04.2023 18:38 13,9 C 16,1 C 10,0 C 58 % 1012,9 hPa 0,0 l/m 2 min 0 min 215 W/m 6,4 km/h (2 Bft) 100,00 %
11.04.2023 18:40 13,9 C 15,6 C 10,0 C 58 % 1012,9 hPa 0,0 l/m 2 min 0 min 200 W/m 19,3 km/h (3 Bft) 100,00 %
11.04.2023 18:42 13,9 C 15,6 C 10,0 C 58 % 1012,9 hPa 0,0 l/m 2 min 0 min 174 W/m 12,9 km/h (3 Bft) 100,00 %
11.04.2023 18:44 13,9 C 16,1 C 10,0 C 59 % 1012,9 hPa 0,0 l/m 2 min 0 min 194 W/m 12,9 km/h (3 Bft) 100,00 %
11.04.2023 18:46 14,0 C 15,0 C 10,0 C 59 % 1012,9 hPa 0,0 l/m 2 min 0 min 144 W/m 19,3 km/h (3 Bft) 97,87 %
11.04.2023 18:48 13,9 C 14,4 C 10,0 C 58 % 1012,9 hPa 0,0 l/m 0 min 0 min 77 W/m 16,1 km/h (3 Bft) 100,00 %
11.04.2023 18:50 13,8 C 13,9 C 10,0 C 58 % 1012,9 hPa 0,0 l/m 0 min 0 min 79 W/m 16,1 km/h (3 Bft) 100,00 %
11.04.2023 18:52 13,8 C 13,3 C 10,0 C 59 % 1013,0 hPa 0,0 l/m 0 min 0 min 74 W/m 12,9 km/h (3 Bft) 100,00 %
11.04.2023 18:54 13,7 C 13,3 C 9,4 C 60 % 1012,9 hPa 0,0 l/m 0 min 0 min 69 W/m 9,7 km/h (2 Bft) 97,87 %
11.04.2023 18:56 13,7 C 13,3 C 9,4 C 60 % 1012,9 hPa 0,0 l/m 0 min 0 min 60 W/m 3,2 km/h (1 Bft) 100,00 %
11.04.2023 18:58 13,6 C 13,3 C 9,4 C 60 % 1012,9 hPa 0,0 l/m 0 min 0 min 58 W/m 12,9 km/h (3 Bft) 100,00 %
11.04.2023 19:00 13,6 C 12,8 C 9,4 C 61 % 1013,0 hPa 0,0 l/m 0 min 0 min 54 W/m 12,9 km/h (3 Bft) 100,00 %
11.04.2023 19:02 13,5 C 12,8 C 9,4 C 61 % 1013,0 hPa 0,0 l/m 0 min 0 min 50 W/m 22,5 km/h (4 Bft) 97,87 %
11.04.2023 19:04 13,4 C 12,8 C 9,4 C 61 % 1013,0 hPa 0,0 l/m 0 min 0 min 44 W/m 12,9 km/h (3 Bft) 100,00 %
11.04.2023 19:06 13,3 C 12,8 C 8,9 C 61 % 1013,0 hPa 0,0 l/m 0 min 0 min 41 W/m 29,0 km/h (5 Bft) 98,31 %
11.04.2023 19:08 13,3 C 12,2 C 8,9 C 60 % 1013,0 hPa 0,0 l/m 0 min 0 min 40 W/m 25,7 km/h (4 Bft) 97,14 %
11.04.2023 19:10 13,2 C 12,2 C 8,9 C 61 % 1013,0 hPa 0,0 l/m 0 min 0 min 39 W/m 12,9 km/h (3 Bft) 97,87 %
11.04.2023 19:12 13,1 C 12,2 C 8,9 C 61 % 1013,0 hPa 0,0 l/m 0 min 0 min 39 W/m 12,9 km/h (3 Bft) 97,87 %
11.04.2023 19:14 13,1 C 12,2 C 8,9 C 61 % 1012,9 hPa 0,0 l/m 0 min 0 min 40 W/m 22,5 km/h (4 Bft) 95,74 %
11.04.2023 19:16 13,0 C 12,2 C 8,9 C 61 % 1012,9 hPa 0,0 l/m 0 min 0 min 40 W/m 12,9 km/h (3 Bft) 95,74 %
11.04.2023 19:18 12,9 C 12,2 C 8,9 C 62 % 1012,9 hPa 0,0 l/m 0 min 0 min 40 W/m 16,1 km/h (3 Bft) 97,83 %
11.04.2023 19:20 12,8 C 12,2 C 8,3 C 62 % 1012,9 hPa 0,0 l/m 0 min 0 min 40 W/m 16,1 km/h (3 Bft) 97,87 %
11.04.2023 19:22 12,7 C 11,7 C 8,3 C 63 % 1012,9 hPa 0,0 l/m 0 min 0 min 40 W/m 19,3 km/h (3 Bft) 95,74 %
11.04.2023 19:24 12,7 C 11,7 C 8,3 C 63 % 1012,9 hPa 0,0 l/m 0 min 0 min 40 W/m 12,9 km/h (3 Bft) 95,74 %
11.04.2023 19:26 12,6 C 11,7 C 8,3 C 63 % 1012,8 hPa 0,0 l/m 0 min 0 min 39 W/m 12,9 km/h (3 Bft) 95,74 %
11.04.2023 19:28 12,6 C 11,7 C 8,3 C 63 % 1012,8 hPa 0,0 l/m 0 min 0 min 38 W/m 12,9 km/h (3 Bft) 95,74 %
11.04.2023 19:30 12,6 C 11,7 C 8,3 C 63 % 1012,8 hPa 0,0 l/m 0 min 0 min 37 W/m 9,7 km/h (2 Bft) 93,62 %
11.04.2023 19:32 12,6 C 11,7 C 8,3 C 63 % 1012,8 hPa 0,0 l/m 0 min 0 min 37 W/m 12,9 km/h (3 Bft) 95,65 %
11.04.2023 19:34 12,5 C 11,7 C 8,3 C 63 % 1012,7 hPa 0,0 l/m 0 min 0 min 35 W/m 12,9 km/h (3 Bft) 93,62 %
11.04.2023 19:36 12,5 C 11,7 C 8,3 C 63 % 1012,7 hPa 0,0 l/m 0 min 0 min 33 W/m 6,4 km/h (2 Bft) 95,74 %
11.04.2023 19:38 12,5 C 11,7 C 8,3 C 63 % 1012,7 hPa 0,0 l/m 0 min 0 min 33 W/m 12,9 km/h (3 Bft) 95,74 %
11.04.2023 19:40 12,4 C 11,7 C 8,3 C 63 % 1012,7 hPa 0,0 l/m 0 min 0 min 32 W/m 9,7 km/h (2 Bft) 95,74 %
11.04.2023 19:42 12,4 C 11,7 C 8,3 C 63 % 1012,7 hPa 0,0 l/m 0 min 0 min 32 W/m 16,1 km/h (3 Bft) 93,62 %
11.04.2023 19:44 12,4 C 11,7 C 7,8 C 63 % 1012,6 hPa 0,0 l/m 0 min 0 min 30 W/m 12,9 km/h (3 Bft) 95,74 %
11.04.2023 19:46 12,3 C 11,7 C 7,8 C 63 % 1012,6 hPa 0,0 l/m 0 min 0 min 27 W/m 16,1 km/h (3 Bft) 95,65 %
11.04.2023 19:48 12,3 C 11,7 C 7,8 C 63 % 1012,6 hPa 0,0 l/m 0 min 0 min 26 W/m 9,7 km/h (2 Bft) 93,62 %
11.04.2023 19:50 12,2 C 11,1 C 7,8 C 64 % 1012,5 hPa 0,0 l/m 0 min 0 min 25 W/m 12,9 km/h (3 Bft) 97,87 %
11.04.2023 19:52 12,2 C 11,1 C 7,8 C 64 % 1012,6 hPa 0,0 l/m 0 min 0 min 23 W/m 12,9 km/h (3 Bft) 95,74 %
11.04.2023 19:54 12,2 C 11,1 C 7,8 C 64 % 1012,6 hPa 0,0 l/m 0 min 0 min 21 W/m 12,9 km/h (3 Bft) 97,87 %
11.04.2023 19:56 12,2 C 11,1 C 7,8 C 64 % 1012,5 hPa 0,0 l/m 0 min 0 min 20 W/m 9,7 km/h (2 Bft) 97,87 %
11.04.2023 19:58 12,1 C 11,1 C 7,8 C 64 % 1012,5 hPa 0,0 l/m 0 min 0 min 18 W/m 12,9 km/h (3 Bft) 100,00 %
11.04.2023 20:00 12,1 C 11,1 C 7,8 C 64 % 1012,5 hPa 0,0 l/m 0 min 0 min 16 W/m 6,4 km/h (2 Bft) 97,87 %
11.04.2023 20:02 12,1 C 11,1 C 7,8 C 65 % 1012,5 hPa 0,0 l/m 0 min 0 min 14 W/m 6,4 km/h (2 Bft) 97,87 %
11.04.2023 20:04 12,1 C 11,1 C 7,8 C 65 % 1012,5 hPa 0,0 l/m 0 min 0 min 12 W/m 12,9 km/h (3 Bft) 95,83 %
11.04.2023 20:06 12,1 C 11,1 C 7,8 C 65 % 1012,5 hPa 0,0 l/m 0 min 0 min 11 W/m 6,4 km/h (2 Bft) 95,74 %
11.04.2023 20:08 12,0 C 11,1 C 7,8 C 65 % 1012,5 hPa 0,0 l/m 0 min 0 min 10 W/m 12,9 km/h (3 Bft) 95,74 %
11.04.2023 20:10 12,0 C 11,1 C 7,8 C 65 % 1012,5 hPa 0,0 l/m 0 min 0 min 8 W/m 16,1 km/h (3 Bft) 95,74 %
11.04.2023 20:12 12,0 C 11,1 C 7,8 C 65 % 1012,5 hPa 0,0 l/m 0 min 0 min 7 W/m 6,4 km/h (2 Bft) 97,83 %
11.04.2023 20:14 12,0 C 11,1 C 7,8 C 65 % 1012,4 hPa 0,0 l/m 0 min 0 min 6 W/m 9,7 km/h (2 Bft) 97,87 %
11.04.2023 20:16 11,9 C 11,1 C 7,8 C 65 % 1012,5 hPa 0,0 l/m 0 min 0 min 5 W/m 9,7 km/h (2 Bft) 97,87 %
11.04.2023 20:18 11,9 C 11,1 C 7,8 C 65 % 1012,5 hPa 0,0 l/m 0 min 0 min 2 W/m 6,4 km/h (2 Bft) 97,87 %
11.04.2023 20:20 11,9 C 11,1 C 7,8 C 66 % 1012,5 hPa 0,0 l/m 0 min 0 min 0 W/m 6,4 km/h (2 Bft) 97,87 %
11.04.2023 20:22 11,9 C 10,6 C 7,8 C 66 % 1012,4 hPa 0,0 l/m 0 min 0 min 0 W/m 12,9 km/h (3 Bft) 97,87 %
11.04.2023 20:24 11,8 C 10,6 C 7,2 C 66 % 1012,5 hPa 0,0 l/m 0 min 0 min 0 W/m 6,4 km/h (2 Bft) 95,65 %
11.04.2023 20:26 11,8 C 10,6 C 7,2 C 66 % 1012,5 hPa 0,0 l/m 0 min 0 min 0 W/m 6,4 km/h (2 Bft) 97,87 %
11.04.2023 20:28 11,8 C 10,6 C 7,2 C 66 % 1012,4 hPa 0,0 l/m 0 min 0 min 0 W/m 6,4 km/h (2 Bft) 95,74 %
11.04.2023 20:30 11,8 C 10,6 C 7,2 C 66 % 1012,4 hPa 0,0 l/m 0 min 0 min 0 W/m 6,4 km/h (2 Bft) 97,87 %
11.04.2023 20:32 11,7 C 10,6 C 7,2 C 67 % 1012,3 hPa 0,0 l/m 0 min 0 min 0 W/m 6,4 km/h (2 Bft) 97,87 %
11.04.2023 20:34 11,7 C 10,6 C 7,2 C 67 % 1012,3 hPa 0,0 l/m 0 min 0 min 0 W/m 9,7 km/h (2 Bft) 97,87 %
11.04.2023 20:36 11,7 C 10,6 C 7,2 C 67 % 1012,3 hPa 0,0 l/m 0 min 0 min 0 W/m 6,4 km/h (2 Bft) 97,87 %
11.04.2023 20:38 11,6 C 10,6 C 7,2 C 67 % 1012,3 hPa 0,0 l/m 0 min 0 min 0 W/m 6,4 km/h (2 Bft) 95,74 %
11.04.2023 20:40 11,6 C 10,6 C 7,2 C 67 % 1012,3 hPa 0,0 l/m 0 min 0 min 0 W/m 12,9 km/h (3 Bft) 95,65 %
11.04.2023 20:42 11,6 C 10,6 C 7,2 C 67 % 1012,3 hPa 0,0 l/m 0 min 0 min 0 W/m 9,7 km/h (2 Bft) 95,74 %
11.04.2023 20:44 11,6 C 10,6 C 7,2 C 67 % 1012,3 hPa 0,0 l/m 0 min 0 min 0 W/m 6,4 km/h (2 Bft) 97,87 %
11.04.2023 20:46 11,5 C 10,6 C 7,2 C 68 % 1012,3 hPa 0,0 l/m 0 min 0 min 0 W/m 6,4 km/h (2 Bft) 97,87 %
11.04.2023 20:48 11,5 C 10,6 C 7,2 C 68 % 1012,2 hPa 0,0 l/m 0 min 0 min 0 W/m 6,4 km/h (2 Bft) 95,74 %
11.04.2023 20:50 11,4 C 10,6 C 7,2 C 68 % 1012,2 hPa 0,0 l/m 0 min 0 min 0 W/m 6,4 km/h (2 Bft) 97,87 %
11.04.2023 20:52 11,4 C 10,6 C 7,2 C 68 % 1012,2 hPa 0,0 l/m 0 min 0 min 0 W/m 6,4 km/h (2 Bft) 97,83 %
11.04.2023 20:54 11,4 C 10,0 C 7,2 C 68 % 1012,2 hPa 0,0 l/m 0 min 0 min 0 W/m 6,4 km/h (2 Bft) 97,87 %
11.04.2023 20:56 11,4 C 10,0 C 7,2 C 68 % 1012,2 hPa 0,0 l/m 0 min 0 min 0 W/m 6,4 km/h (2 Bft) 97,87 %
11.04.2023 20:58 11,3 C 10,0 C 7,2 C 69 % 1012,2 hPa 0,0 l/m 0 min 0 min 0 W/m 9,7 km/h (2 Bft) 97,87 %
11.04.2023 21:00 11,3 C 10,0 C 7,2 C 69 % 1012,2 hPa 0,0 l/m 0 min 0 min 0 W/m 6,4 km/h (2 Bft) 97,87 %
11.04.2023 21:02 11,3 C 10,0 C 6,7 C 69 % 1012,2 hPa 0,0 l/m 0 min 0 min 0 W/m 6,4 km/h (2 Bft) 97,87 %
11.04.2023 21:04 11,2 C 10,0 C 6,7 C 69 % 1012,2 hPa 0,0 l/m 0 min 0 min 0 W/m 6,4 km/h (2 Bft) 100,00 %
11.04.2023 21:06 11,2 C 10,0 C 6,7 C 69 % 1012,2 hPa 0,0 l/m 0 min 0 min 0 W/m 6,4 km/h (2 Bft) 98,11 %
11.04.2023 21:08 11,2 C 10,0 C 6,7 C 69 % 1012,2 hPa 0,0 l/m 0 min 0 min 0 W/m 3,2 km/h (1 Bft) 100,00 %
11.04.2023 21:10 11,2 C 10,0 C 6,7 C 70 % 1012,2 hPa 0,0 l/m 0 min 0 min 0 W/m 9,7 km/h (2 Bft) 95,83 %
11.04.2023 21:12 11,1 C 10,0 C 6,7 C 70 % 1012,2 hPa 0,0 l/m 0 min 0 min 0 W/m 6,4 km/h (2 Bft) 95,74 %
11.04.2023 21:14 11,1 C 10,0 C 6,7 C 70 % 1012,2 hPa 0,0 l/m 0 min 0 min 0 W/m 6,4 km/h (2 Bft) 95,74 %
11.04.2023 21:16 11,1 C 10,0 C 6,7 C 71 % 1012,1 hPa 0,0 l/m 0 min 0 min 0 W/m 6,4 km/h (2 Bft) 97,87 %
11.04.2023 21:18 11,1 C 10,0 C 6,7 C 71 % 1012,1 hPa 0,0 l/m 0 min 0 min 0 W/m 6,4 km/h (2 Bft) 97,87 %
11.04.2023 21:20 11,0 C 10,0 C 6,7 C 71 % 1012,1 hPa 0,0 l/m 0 min 0 min 0 W/m 9,7 km/h (2 Bft) 95,74 %
11.04.2023 21:22 11,0 C 10,0 C 6,7 C 71 % 1012,1 hPa 0,0 l/m 0 min 0 min 0 W/m 6,4 km/h (2 Bft) 93,62 %
11.04.2023 21:24 10,9 C 10,0 C 6,7 C 71 % 1012,1 hPa 0,0 l/m 0 min 0 min 0 W/m 6,4 km/h (2 Bft) 97,83 %
11.04.2023 21:26 10,9 C 10,0 C 6,7 C 71 % 1012,1 hPa 0,0 l/m 0 min 0 min 0 W/m 9,7 km/h (2 Bft) 97,92 %
11.04.2023 21:28 10,9 C 10,0 C 6,7 C 71 % 1012,1 hPa 0,0 l/m 0 min 0 min 0 W/m 12,9 km/h (3 Bft) 97,87 %
11.04.2023 21:30 10,9 C 10,0 C 6,7 C 72 % 1012,1 hPa 0,0 l/m 0 min 0 min 0 W/m 6,4 km/h (2 Bft) 95,74 %
11.04.2023 21:32 10,9 C 10,0 C 6,7 C 72 % 1012,1 hPa 0,0 l/m 0 min 0 min 0 W/m 6,4 km/h (2 Bft) 95,74 %
11.04.2023 21:34 10,9 C 10,0 C 6,7 C 72 % 1012,1 hPa 0,0 l/m 0 min 0 min 0 W/m 6,4 km/h (2 Bft) 93,62 %
11.04.2023 21:36 10,9 C 10,0 C 6,7 C 72 % 1012,0 hPa 0,0 l/m 0 min 0 min 0 W/m 6,4 km/h (2 Bft) 93,48 %
11.04.2023 21:38 10,8 C 10,0 C 6,7 C 72 % 1011,9 hPa 0,0 l/m 0 min 0 min 0 W/m 9,7 km/h (2 Bft) 95,74 %
11.04.2023 21:40 10,8 C 10,0 C 6,7 C 72 % 1011,9 hPa 0,0 l/m 0 min 0 min 0 W/m 6,4 km/h (2 Bft) 97,87 %
11.04.2023 21:42 10,8 C 10,0 C 6,7 C 72 % 1012,0 hPa 0,0 l/m 0 min 0 min 0 W/m 6,4 km/h (2 Bft) 97,87 %
11.04.2023 21:44 10,8 C 10,0 C 6,7 C 72 % 1011,9 hPa 0,0 l/m 0 min 0 min 0 W/m 6,4 km/h (2 Bft) 95,74 %
11.04.2023 21:46 10,8 C 10,0 C 6,7 C 72 % 1011,8 hPa 0,0 l/m 0 min 0 min 0 W/m 6,4 km/h (2 Bft) 97,87 %
11.04.2023 21:48 10,8 C 10,0 C 6,7 C 73 % 1011,9 hPa 0,0 l/m 0 min 0 min 0 W/m 9,7 km/h (2 Bft) 97,87 %
11.04.2023 21:50 10,8 C 10,0 C 6,7 C 73 % 1011,8 hPa 0,0 l/m 0 min 0 min 0 W/m 6,4 km/h (2 Bft) 97,83 %
11.04.2023 21:52 10,8 C 10,0 C 6,7 C 73 % 1011,8 hPa 0,0 l/m 0 min 0 min 0 W/m 6,4 km/h (2 Bft) 97,87 %
11.04.2023 21:54 10,8 C 10,0 C 6,7 C 73 % 1011,8 hPa 0,0 l/m 0 min 0 min 0 W/m 6,4 km/h (2 Bft) 97,87 %
11.04.2023 21:56 10,8 C 10,0 C 6,7 C 73 % 1011,8 hPa 0,0 l/m 0 min 0 min 0 W/m 6,4 km/h (2 Bft) 97,87 %
11.04.2023 21:58 10,8 C 10,0 C 6,7 C 73 % 1011,6 hPa 0,0 l/m 0 min 0 min 0 W/m 6,4 km/h (2 Bft) 97,87 %
11.04.2023 22:00 10,8 C 10,0 C 6,7 C 73 % 1011,6 hPa 0,0 l/m 0 min 0 min 0 W/m 3,2 km/h (1 Bft) 97,87 %
11.04.2023 22:02 10,8 C 10,0 C 6,7 C 73 % 1011,6 hPa 0,0 l/m 0 min 0 min 0 W/m 6,4 km/h (2 Bft) 97,87 %
11.04.2023 22:04 10,8 C 10,0 C 6,7 C 74 % 1011,5 hPa 0,0 l/m 0 min 0 min 0 W/m 6,4 km/h (2 Bft) 97,83 %
11.04.2023 22:06 10,7 C 10,0 C 6,7 C 74 % 1011,5 hPa 0,0 l/m 0 min 0 min 0 W/m 6,4 km/h (2 Bft) 96,00 %
11.04.2023 22:08 10,7 C 10,0 C 6,7 C 74 % 1011,4 hPa 0,0 l/m 0 min 0 min 0 W/m 6,4 km/h (2 Bft) 97,87 %
11.04.2023 22:10 10,7 C 10,0 C 6,7 C 74 % 1011,4 hPa 0,0 l/m 0 min 0 min 0 W/m 6,4 km/h (2 Bft) 97,87 %
11.04.2023 22:12 10,7 C 10,0 C 6,7 C 74 % 1011,4 hPa 0,0 l/m 0 min 0 min 0 W/m 6,4 km/h (2 Bft) 100,00 %
11.04.2023 22:14 10,7 C 10,0 C 6,7 C 74 % 1011,4 hPa 0,0 l/m 0 min 0 min 0 W/m 3,2 km/h (1 Bft) 100,00 %
11.04.2023 22:16 10,7 C 10,0 C 6,7 C 74 % 1011,4 hPa 0,0 l/m 0 min 0 min 0 W/m 6,4 km/h (2 Bft) 100,00 %
11.04.2023 22:18 10,7 C 10,0 C 6,7 C 74 % 1011,3 hPa 0,0 l/m 0 min 0 min 0 W/m 6,4 km/h (2 Bft) 100,00 %
11.04.2023 22:20 10,7 C 10,0 C 6,7 C 74 % 1011,2 hPa 0,0 l/m 0 min 0 min 0 W/m 9,7 km/h (2 Bft) 100,00 %
11.04.2023 22:22 10,7 C 10,0 C 6,7 C 74 % 1011,2 hPa 0,0 l/m 0 min 0 min 0 W/m 6,4 km/h (2 Bft) 100,00 %
11.04.2023 22:24 10,7 C 10,0 C 6,7 C 74 % 1011,2 hPa 0,0 l/m 0 min 0 min 0 W/m 3,2 km/h (1 Bft) 100,00 %
11.04.2023 22:26 10,7 C 10,0 C 6,7 C 74 % 1011,1 hPa 0,0 l/m 0 min 0 min 0 W/m 6,4 km/h (2 Bft) 100,00 %
11.04.2023 22:28 10,7 C 10,0 C 6,7 C 74 % 1011,1 hPa 0,0 l/m 0 min 0 min 0 W/m 6,4 km/h (2 Bft) 100,00 %
11.04.2023 22:30 10,7 C 10,0 C 6,7 C 74 % 1011,1 hPa 0,0 l/m 0 min 0 min 0 W/m 6,4 km/h (2 Bft) 97,83 %
11.04.2023 22:32 10,7 C 10,0 C 6,7 C 74 % 1011,1 hPa 0,0 l/m 0 min 0 min 0 W/m 6,4 km/h (2 Bft) 100,00 %
11.04.2023 22:34 10,7 C 10,0 C 6,7 C 74 % 1011,0 hPa 0,0 l/m 0 min 0 min 0 W/m 6,4 km/h (2 Bft) 100,00 %
11.04.2023 22:36 10,6 C 10,0 C 6,7 C 74 % 1011,0 hPa 0,0 l/m 0 min 0 min 0 W/m 9,7 km/h (2 Bft) 100,00 %
11.04.2023 22:38 10,6 C 10,0 C 6,7 C 74 % 1011,0 hPa 0,0 l/m 0 min 0 min 0 W/m 3,2 km/h (1 Bft) 100,00 %
11.04.2023 22:40 10,6 C 10,0 C 6,7 C 74 % 1011,0 hPa 0,0 l/m 0 min 0 min 0 W/m 6,4 km/h (2 Bft) 100,00 %
11.04.2023 22:42 10,6 C 10,0 C 6,7 C 73 % 1011,0 hPa 0,0 l/m 0 min 0 min 0 W/m 6,4 km/h (2 Bft) 100,00 %
11.04.2023 22:44 10,6 C 10,0 C 6,7 C 73 % 1010,9 hPa 0,0 l/m 0 min 0 min 0 W/m 6,4 km/h (2 Bft) 95,65 %
11.04.2023 22:46 10,6 C 10,0 C 6,7 C 73 % 1010,9 hPa 0,0 l/m 0 min 0 min 0 W/m 6,4 km/h (2 Bft) 100,00 %
11.04.2023 22:48 10,6 C 10,0 C 6,7 C 73 % 1010,8 hPa 0,0 l/m 0 min 0 min 0 W/m 6,4 km/h (2 Bft) 100,00 %
11.04.2023 22:50 10,6 C 10,0 C 6,7 C 73 % 1010,8 hPa 0,0 l/m 0 min 0 min 0 W/m 6,4 km/h (2 Bft) 97,87 %
11.04.2023 22:52 10,6 C 10,0 C 6,7 C 73 % 1010,8 hPa 0,0 l/m 0 min 0 min 0 W/m 6,4 km/h (2 Bft) 100,00 %
11.04.2023 22:54 10,6 C 10,0 C 6,7 C 73 % 1010,8 hPa 0,0 l/m 0 min 0 min 0 W/m 3,2 km/h (1 Bft) 100,00 %
11.04.2023 22:56 10,6 C 10,0 C 6,7 C 73 % 1010,8 hPa 0,0 l/m 0 min 0 min 0 W/m 3,2 km/h (1 Bft) 97,83 %
11.04.2023 22:58 10,6 C 10,0 C 6,7 C 73 % 1010,7 hPa 0,0 l/m 0 min 0 min 0 W/m 0,0 km/h (0 Bft) 95,74 %
11.04.2023 23:00 10,6 C 10,0 C 6,7 C 73 % 1010,7 hPa 0,0 l/m 0 min 0 min 0 W/m 0,0 km/h (0 Bft) 97,87 %
11.04.2023 23:02 10,5 C 9,4 C 6,7 C 73 % 1010,6 hPa 0,0 l/m 0 min 0 min 0 W/m 0,0 km/h (0 Bft) 97,87 %
11.04.2023 23:04 10,5 C 9,4 C 6,7 C 73 % 1010,6 hPa 0,0 l/m 0 min 0 min 0 W/m 0,0 km/h (0 Bft) 97,87 %
11.04.2023 23:06 10,5 C 9,4 C 6,7 C 73 % 1010,5 hPa 0,0 l/m 0 min 0 min 0 W/m 6,4 km/h (2 Bft) 97,92 %
11.04.2023 23:08 10,5 C 9,4 C 6,7 C 73 % 1010,5 hPa 0,0 l/m 0 min 0 min 0 W/m 6,4 km/h (2 Bft) 97,87 %
11.04.2023 23:10 10,5 C 9,4 C 6,7 C 73 % 1010,5 hPa 0,0 l/m 0 min 0 min 0 W/m 9,7 km/h (2 Bft) 97,87 %
11.04.2023 23:12 10,4 C 9,4 C 6,7 C 73 % 1010,4 hPa 0,0 l/m 0 min 0 min 0 W/m 6,4 km/h (2 Bft) 97,83 %
11.04.2023 23:14 10,4 C 9,4 C 6,7 C 73 % 1010,4 hPa 0,0 l/m 0 min 0 min 0 W/m 6,4 km/h (2 Bft) 97,96 %
11.04.2023 23:16 10,4 C 9,4 C 6,7 C 73 % 1010,4 hPa 0,0 l/m 0 min 0 min 0 W/m 6,4 km/h (2 Bft) 95,74 %
11.04.2023 23:18 10,4 C 9,4 C 6,7 C 73 % 1010,4 hPa 0,0 l/m 0 min 0 min 0 W/m 6,4 km/h (2 Bft) 93,62 %
11.04.2023 23:20 10,4 C 9,4 C 6,7 C 73 % 1010,3 hPa 0,0 l/m 0 min 0 min 0 W/m 6,4 km/h (2 Bft) 94,74 %
11.04.2023 23:22 10,4 C 9,4 C 6,7 C 73 % 1010,3 hPa 0,0 l/m 0 min 0 min 0 W/m 3,2 km/h (1 Bft) 95,74 %
11.04.2023 23:24 10,4 C 9,4 C 6,7 C 73 % 1010,3 hPa 0,0 l/m 0 min 0 min 0 W/m 12,9 km/h (3 Bft) 95,65 %
11.04.2023 23:26 10,4 C 9,4 C 6,1 C 73 % 1010,2 hPa 0,0 l/m 0 min 0 min 0 W/m 6,4 km/h (2 Bft) 95,74 %
11.04.2023 23:28 10,4 C 9,4 C 6,7 C 73 % 1010,3 hPa 0,0 l/m 0 min 0 min 0 W/m 6,4 km/h (2 Bft) 97,87 %
11.04.2023 23:30 10,4 C 9,4 C 6,7 C 73 % 1010,2 hPa 0,0 l/m 0 min 0 min 0 W/m 12,9 km/h (3 Bft) 95,74 %
11.04.2023 23:32 10,3 C 9,4 C 6,7 C 73 % 1010,1 hPa 0,0 l/m 0 min 0 min 0 W/m 9,7 km/h (2 Bft) 97,87 %
11.04.2023 23:34 10,3 C 9,4 C 6,7 C 73 % 1010,1 hPa 0,0 l/m 0 min 0 min 0 W/m 12,9 km/h (3 Bft) 96,43 %
11.04.2023 23:36 10,3 C 9,4 C 6,1 C 73 % 1010,0 hPa 0,0 l/m 0 min 0 min 0 W/m 6,4 km/h (2 Bft) 97,87 %
11.04.2023 23:38 10,3 C 9,4 C 6,1 C 73 % 1010,0 hPa 0,0 l/m 0 min 0 min 0 W/m 6,4 km/h (2 Bft) 95,65 %
11.04.2023 23:40 10,3 C 9,4 C 6,1 C 73 % 1010,0 hPa 0,0 l/m 0 min 0 min 0 W/m 6,4 km/h (2 Bft) 97,87 %
11.04.2023 23:42 10,3 C 9,4 C 6,1 C 72 % 1010,0 hPa 0,0 l/m 0 min 0 min 0 W/m 6,4 km/h (2 Bft) 95,74 %
11.04.2023 23:44 10,3 C 9,4 C 6,1 C 72 % 1009,9 hPa 0,0 l/m 0 min 0 min 0 W/m 6,4 km/h (2 Bft) 95,74 %
11.04.2023 23:46 10,3 C 9,4 C 6,1 C 72 % 1009,9 hPa 0,0 l/m 0 min 0 min 0 W/m 6,4 km/h (2 Bft) 97,87 %
11.04.2023 23:48 10,3 C 9,4 C 6,1 C 72 % 1009,9 hPa 0,0 l/m 0 min 0 min 0 W/m 6,4 km/h (2 Bft) 95,74 %
11.04.2023 23:50 10,3 C 9,4 C 6,1 C 73 % 1009,8 hPa 0,0 l/m 0 min 0 min 0 W/m 6,4 km/h (2 Bft) 93,62 %
11.04.2023 23:52 10,3 C 9,4 C 6,1 C 73 % 1009,8 hPa 0,0 l/m 0 min 0 min 0 W/m 6,4 km/h (2 Bft) 95,65 %
11.04.2023 23:54 10,3 C 9,4 C 6,1 C 73 % 1009,8 hPa 0,0 l/m 0 min 0 min 0 W/m 6,4 km/h (2 Bft) 95,74 %
11.04.2023 23:56 10,3 C 9,4 C 6,1 C 73 % 1009,7 hPa 0,0 l/m 0 min 0 min 0 W/m 12,9 km/h (3 Bft) 93,62 %
11.04.2023 23:58 10,2 C 9,4 C 6,1 C 74 % 1009,7 hPa 0,0 l/m 0 min 0 min 0 W/m 6,4 km/h (2 Bft) 95,74 %
_ Min-Zeit 07:46 05:12 00:22 16:26 23:56 - - - - 22:58 05:34
Minimum _ 8,6 C 7,8 C 4,4 C 49 % 1009,7 hPa - - - - 0,0 km/h (0 Bft) 56,52 %
_ Max-Zeit 16:30 12:40 12:40 00:00 12:18 00:00 12:12 00:00 13:24 08:34 00:08
Maximum _ 15,2 C 20,6 C 16,1 C 93 % 1014,3 hPa 0,0 l/m 4 min 0 min 976 W/m 41,8 km/h
S-SW (6 Bft)
100,00 %
Durchschnitt _ 11,2 C 11,7 C 7,4 C 73 % 1012,2 hPa #0,0 l/m #6:42 h #0 min. 358 W/m 16,7 km/h (3 Bft) 97,34 %
© 2023 W. Hausmann